GFSMW_500_temp_000.txt.gz
Temp
-13 -13 -13 -13 -13 -13 -13 -13 -13 -13 -13 -13 -13 -14 -14 -14 -14 -14 -14 -14 -14 -14 -15 -15 -15 -16 -16 -17 -17 -17 -17 -17 -17 -17 -17 -17 -17 -17 -17 -17 -17 -17 -17
-13 -13 -13 -13 -13 -13 -13 -13 -13 -14 -14 -14 -14 -14 -14 -14 -14 -15 -15 -15 -15 -15 -16 -16 -16 -16 -17 -17 -17 -17 -17 -17 -17 -17 -17 -17 -17 -17 -17 -17 -17 -17 -17
-13 -13 -13 -13 -13 -14 -14 -14 -14 -14 -14 -14 -15 -14 -15 -15 -15 -15 -15 -15 -15 -16 -17 -17 -18 -18 -18 -18 -18 -18 -18 -17 -18 -18 -17 -17 -17 -18 -17 -17 -17 -17 -17
-14 -14 -14 -14 -14 -14 -14 -15 -15 -15 -15 -15 -15 -16 -16 -15 -16 -16 -16 -16 -16 -17 -17 -17 -18 -18 -18 -19 -19 -19 -19 -18 -18 -18 -19 -18 -18 -18 -18 -18 -18 -18 -18
-14 -14 -14 -14 -14 -14 -14 -15 -15 -15 -15 -16 -15 -15 -17 -16 -17 -17 -17 -18 -18 -18 -18 -19 -19 -19 -20 -20 -20 -20 -21 -20 -19 -19 -19 -19 -19 -19 -18 -18 -19 -18 -18
-14 -14 -15 -15 -15 -14 -14 -15 -15 -16 -16 -16 -16 -16 -16 -17 -17 -17 -18 -19 -19 -20 -20 -20 -21 -21 -22 -22 -22 -22 -22 -22 -22 -21 -21 -20 -20 -20 -20 -19 -19 -19 -19
-14 -13 -13 -14 -14 -14 -15 -15 -15 -15 -16 -16 -17 -17 -17 -17 -18 -18 -18 -19 -20 -20 -21 -21 -22 -23 -23 -23 -23 -23 -23 -23 -23 -23 -22 -22 -22 -21 -21 -21 -20 -20 -20
-14 -14 -14 -14 -14 -14 -15 -16 -16 -16 -16 -16 -16 -17 -17 -17 -18 -19 -19 -20 -21 -22 -22 -23 -24 -24 -24 -24 -24 -24 -24 -24 -23 -23 -23 -23 -23 -23 -23 -22 -21 -21 -20
-15 -14 -14 -14 -14 -15 -15 -16 -16 -17 -17 -17 -18 -18 -18 -19 -19 -20 -20 -21 -21 -22 -23 -24 -24 -25 -24 -24 -25 -24 -24 -24 -24 -23 -23 -23 -23 -23 -23 -23 -23 -22 -21
-15 -15 -15 -15 -15 -16 -16 -16 -16 -17 -18 -18 -19 -19 -20 -20 -20 -21 -21 -22 -22 -23 -24 -25 -25 -25 -25 -25 -25 -24 -24 -24 -24 -24 -23 -23 -23 -23 -23 -23 -23 -23 -22
-16 -16 -16 -16 -16 -17 -17 -17 -17 -17 -18 -18 -19 -20 -20 -21 -21 -22 -22 -23 -23 -24 -25 -25 -25 -25 -25 -25 -24 -24 -24 -24 -24 -24 -24 -23 -23 -23 -23 -24 -23 -23 -23
-16 -16 -17 -17 -16 -17 -17 -18 -18 -17 -18 -18 -19 -20 -21 -21 -21 -22 -23 -23 -24 -24 -25 -25 -25 -25 -25 -24 -24 -24 -24 -24 -24 -24 -25 -25 -25 -25 -25 -25 -24 -24 -24
-17 -17 -17 -17 -17 -18 -18 -18 -18 -18 -18 -18 -19 -19 -20 -21 -22 -22 -23 -24 -25 -25 -25 -25 -25 -25 -25 -25 -25 -25 -25 -25 -25 -25 -25 -26 -26 -26 -26 -26 -25 -25 -25
-17 -17 -18 -17 -18 -18 -18 -18 -19 -19 -18 -18 -19 -19 -21 -22 -23 -23 -24 -25 -25 -25 -25 -25 -25 -25 -25 -26 -26 -26 -26 -26 -26 -27 -27 -27 -28 -28 -28 -28 -28 -28 -27
-17 -18 -18 -19 -19 -18 -19 -20 -20 -19 -19 -20 -20 -21 -22 -23 -24 -25 -25 -25 -25 -25 -25 -26 -26 -26 -26 -27 -27 -27 -27 -28 -28 -29 -30 -30 -31 -31 -31 -31 -31 -30 -30
-17 -18 -19 -19 -19 -20 -20 -20 -20 -20 -20 -20 -21 -23 -23 -24 -24 -25 -25 -25 -26 -26 -26 -26 -26 -27 -27 -28 -28 -29 -29 -30 -30 -31 -31 -31 -30 -30 -30 -30 -30 -30 -29
-18 -18 -18 -19 -19 -20 -20 -20 -20 -20 -21 -22 -23 -23 -24 -25 -26 -26 -26 -26 -26 -26 -27 -27 -27 -28 -28 -29 -30 -31 -31 -31 -30 -30 -30 -30 -30 -30 -29 -29 -29 -29 -28
-19 -19 -19 -19 -20 -20 -21 -21 -21 -21 -22 -23 -24 -25 -25 -26 -26 -26 -26 -26 -27 -27 -27 -28 -28 -29 -30 -31 -31 -31 -30 -30 -29 -29 -29 -29 -29 -29 -29 -29 -28 -28 -28
-19 -20 -20 -20 -20 -21 -21 -21 -21 -22 -23 -24 -25 -25 -26 -26 -26 -26 -26 -27 -27 -27 -28 -29 -30 -30 -31 -31 -31 -30 -29 -29 -29 -29 -29 -28 -28 -28 -28 -28 -28 -28 -28
-19 -20 -21 -21 -21 -21 -21 -22 -22 -23 -24 -25 -26 -26 -26 -26 -26 -26 -27 -27 -28 -28 -29 -30 -31 -31 -31 -30 -29 -29 -29 -29 -28 -28 -28 -28 -28 -28 -28 -28 -28 -28 -29
-21 -21 -21 -21 -21 -22 -22 -23 -24 -24 -25 -26 -26 -26 -27 -27 -27 -27 -28 -28 -28 -29 -30 -31 -32 -31 -30 -29 -29 -29 -28 -28 -28 -28 -28 -29 -29 -29 -29 -29 -29 -29 -29
-21 -22 -22 -22 -22 -23 -24 -25 -25 -26 -26 -26 -27 -27 -27 -27 -28 -28 -28 -28 -29 -30 -31 -31 -31 -30 -29 -29 -29 -29 -29 -28 -28 -29 -29 -29 -29 -29 -29 -29 -29 -29 -29
-22 -22 -23 -23 -24 -24 -26 -26 -26 -27 -27 -27 -27 -27 -28 -28 -28 -28 -28 -29 -30 -31 -32 -31 -31 -30 -29 -29 -29 -29 -29 -29 -29 -29 -29 -29 -29 -29 -29 -29 -29 -29 -29
-23 -23 -23 -24 -25 -26 -26 -27 -27 -27 -27 -28 -28 -28 -28 -29 -29 -29 -29 -30 -31 -31 -31 -31 -30 -29 -29 -29 -29 -29 -29 -29 -28 -28 -29 -29 -30 -30 -30 -29 -29 -29 -29
-23 -24 -25 -26 -26 -27 -27 -27 -28 -28 -28 -28 -28 -29 -29 -29 -29 -29 -30 -31 -31 -31 -31 -30 -30 -30 -30 -30 -29 -29 -29 -29 -28 -28 -29 -29 -29 -29 -29 -29 -29 -30 -30
-24 -25 -26 -27 -27 -27 -28 -28 -28 -28 -28 -29 -29 -29 -29 -29 -30 -30 -31 -32 -32 -32 -31 -30 -30 -30 -30 -30 -29 -29 -29 -29 -28 -28 -28 -28 -29 -29 -29 -29 -29 -29 -30

GFSMW_500_temp_006.txt.gz
Temp
-13 -13 -14 -14 -14 -14 -14 -14 -14 -14 -15 -14 -14 -14 -15 -15 -15 -14 -14 -15 -15 -15 -15 -15 -15 -15 -16 -16 -16 -16 -16 -16 -16 -16 -16 -16 -17 -18 -17 -18 -17 -17 -17
-14 -14 -14 -14 -14 -15 -15 -15 -15 -15 -16 -15 -15 -15 -15 -15 -15 -15 -15 -15 -15 -16 -16 -16 -16 -16 -16 -16 -17 -17 -17 -17 -17 -17 -17 -17 -18 -18 -18 -18 -18 -17 -18
-14 -14 -14 -14 -15 -15 -15 -16 -16 -16 -16 -15 -15 -15 -15 -15 -15 -15 -16 -16 -16 -16 -16 -16 -16 -16 -16 -16 -16 -17 -17 -18 -18 -18 -18 -18 -18 -19 -20 -19 -19 -19 -18
-14 -14 -14 -14 -14 -15 -15 -15 -15 -16 -15 -15 -15 -15 -15 -15 -16 -16 -16 -16 -16 -16 -17 -16 -16 -16 -16 -16 -17 -17 -17 -18 -19 -20 -20 -20 -19 -19 -19 -21 -21 -20 -19
-14 -15 -15 -15 -15 -15 -15 -15 -15 -15 -15 -15 -15 -15 -15 -15 -16 -16 -16 -17 -17 -17 -18 -18 -18 -18 -17 -18 -17 -17 -18 -18 -20 -21 -21 -22 -22 -22 -21 -20 -21 -22 -21
-15 -16 -16 -16 -16 -16 -16 -17 -16 -15 -15 -16 -16 -17 -17 -17 -17 -17 -17 -17 -17 -17 -18 -18 -19 -19 -18 -19 -19 -20 -20 -20 -21 -22 -22 -23 -23 -23 -23 -23 -22 -21 -22
-16 -16 -16 -16 -16 -16 -17 -17 -17 -17 -17 -17 -18 -18 -18 -18 -18 -18 -18 -18 -18 -18 -18 -19 -19 -20 -21 -21 -22 -23 -23 -24 -23 -23 -23 -24 -24 -24 -24 -24 -23 -23 -22
-16 -16 -16 -17 -17 -18 -17 -17 -17 -18 -18 -18 -18 -18 -19 -19 -19 -19 -19 -19 -19 -19 -19 -19 -20 -21 -23 -24 -25 -25 -25 -25 -25 -25 -25 -25 -25 -25 -25 -25 -24 -23 -23
-16 -17 -17 -18 -18 -17 -17 -17 -18 -18 -18 -18 -18 -18 -18 -19 -19 -19 -19 -20 -20 -20 -20 -21 -23 -24 -25 -25 -25 -25 -25 -26 -26 -26 -26 -26 -26 -26 -26 -25 -25 -24 -23
-17 -18 -18 -18 -17 -18 -18 -19 -19 -18 -18 -18 -18 -18 -18 -18 -19 -19 -19 -20 -20 -21 -21 -22 -23 -24 -25 -25 -26 -26 -26 -26 -26 -26 -26 -26 -26 -26 -25 -25 -25 -24 -24
-18 -18 -17 -18 -18 -18 -18 -18 -18 -18 -18 -18 -18 -18 -18 -18 -19 -20 -21 -21 -21 -21 -22 -23 -24 -25 -25 -26 -26 -26 -26 -26 -26 -26 -26 -26 -26 -25 -25 -25 -25 -24 -24
-18 -18 -18 -19 -19 -19 -19 -19 -19 -19 -19 -19 -19 -19 -19 -19 -21 -21 -21 -21 -22 -22 -23 -24 -25 -26 -26 -26 -26 -26 -26 -26 -26 -26 -26 -26 -25 -25 -25 -25 -24 -24 -24
-18 -18 -19 -19 -19 -19 -19 -19 -19 -19 -19 -20 -20 -20 -21 -21 -21 -22 -22 -23 -23 -24 -25 -26 -26 -26 -27 -27 -27 -26 -26 -26 -26 -26 -26 -26 -26 -26 -26 -25 -25 -25 -24
-18 -19 -19 -19 -19 -20 -20 -20 -20 -20 -20 -21 -22 -22 -22 -22 -22 -22 -23 -25 -25 -26 -26 -27 -27 -27 -26 -26 -26 -26 -26 -26 -27 -27 -27 -27 -27 -27 -26 -26 -26 -26 -25
-19 -19 -20 -20 -20 -20 -20 -20 -20 -21 -21 -22 -22 -22 -22 -23 -23 -23 -24 -26 -27 -27 -27 -27 -27 -27 -27 -27 -27 -27 -27 -27 -27 -27 -28 -28 -28 -29 -29 -29 -29 -29 -28
-20 -20 -21 -21 -21 -21 -21 -21 -21 -21 -21 -22 -23 -23 -23 -23 -24 -25 -27 -27 -27 -28 -28 -28 -28 -28 -28 -27 -27 -27 -27 -27 -28 -29 -30 -31 -30 -30 -31 -30 -31 -31 -30
-20 -20 -20 -20 -21 -21 -21 -21 -21 -22 -23 -23 -24 -24 -24 -26 -28 -28 -28 -28 -28 -28 -28 -28 -28 -28 -28 -28 -27 -27 -28 -28 -30 -30 -30 -30 -30 -30 -30 -30 -30 -30 -30
-20 -20 -21 -21 -21 -22 -22 -22 -23 -23 -24 -25 -24 -25 -26 -27 -28 -28 -28 -28 -28 -28 -28 -28 -28 -28 -28 -28 -28 -28 -29 -30 -30 -30 -29 -29 -29 -29 -29 -29 -29 -29 -29
-20 -21 -21 -22 -22 -23 -23 -24 -24 -24 -25 -25 -25 -27 -28 -28 -28 -28 -28 -28 -29 -28 -28 -28 -29 -29 -28 -28 -28 -29 -30 -30 -29 -29 -29 -29 -29 -29 -29 -28 -28 -28 -28
-21 -22 -22 -22 -23 -23 -24 -25 -24 -24 -25 -26 -27 -28 -29 -29 -29 -29 -29 -29 -29 -28 -29 -29 -29 -29 -28 -28 -29 -30 -30 -29 -29 -29 -29 -29 -29 -29 -29 -29 -29 -29 -29
-23 -23 -23 -24 -24 -24 -25 -25 -25 -26 -27 -28 -29 -29 -29 -29 -29 -29 -29 -29 -29 -29 -29 -29 -29 -29 -28 -29 -30 -30 -29 -29 -29 -29 -29 -29 -29 -29 -29 -29 -29 -29 -29
-22 -23 -24 -24 -25 -25 -26 -26 -26 -27 -29 -29 -29 -29 -30 -30 -29 -29 -29 -29 -30 -30 -29 -29 -30 -30 -29 -29 -30 -30 -29 -29 -29 -28 -28 -28 -28 -29 -30 -30 -30 -30 -30
-24 -25 -25 -26 -26 -26 -26 -27 -27 -29 -29 -29 -30 -30 -30 -30 -30 -30 -30 -30 -30 -30 -30 -30 -30 -30 -30 -30 -30 -30 -29 -29 -28 -28 -28 -29 -29 -29 -30 -30 -30 -30 -30
-25 -25 -25 -26 -26 -26 -26 -28 -29 -29 -29 -30 -30 -30 -30 -30 -30 -30 -30 -30 -30 -30 -30 -30 -31 -32 -31 -31 -31 -30 -30 -30 -30 -29 -29 -28 -29 -29 -29 -30 -30 -29 -29
-26 -27 -27 -27 -27 -28 -28 -29 -30 -30 -30 -30 -30 -30 -30 -30 -31 -31 -31 -31 -32 -32 -32 -32 -32 -33 -32 -31 -31 -31 -31 -31 -30 -29 -28 -28 -28 -29 -29 -29 -30 -30 -30
-27 -27 -28 -28 -28 -29 -30 -30 -30 -30 -30 -30 -31 -31 -31 -31 -31 -32 -33 -34 -35 -35 -34 -34 -33 -33 -32 -31 -31 -32 -31 -31 -30 -29 -28 -28 -28 -29 -29 -29 -29 -29 -29

GFSMW_500_temp_009.txt.gz
Temp
-14 -13 -13 -14 -15 -15 -15 -15 -15 -15 -16 -15 -15 -15 -15 -15 -15 -15 -14 -15 -15 -15 -15 -15 -15 -15 -15 -16 -16 -16 -16 -17 -17 -17 -17 -17 -17 -17 -17 -17 -17 -17 -17
-14 -14 -14 -14 -15 -15 -15 -15 -16 -16 -16 -16 -16 -16 -16 -16 -16 -16 -15 -15 -15 -15 -16 -16 -16 -16 -16 -17 -17 -18 -18 -18 -18 -18 -18 -18 -17 -17 -16 -17 -17 -17 -17
-14 -14 -15 -15 -15 -15 -15 -16 -16 -15 -15 -15 -15 -15 -15 -15 -16 -16 -16 -16 -16 -16 -16 -17 -17 -17 -17 -17 -17 -17 -17 -18 -18 -18 -18 -18 -18 -18 -18 -18 -18 -18 -18
-15 -15 -15 -15 -15 -15 -16 -16 -16 -16 -15 -15 -15 -15 -15 -15 -15 -15 -15 -16 -16 -16 -17 -17 -17 -18 -18 -17 -17 -17 -17 -17 -18 -18 -19 -19 -19 -18 -18 -20 -20 -20 -20
-14 -14 -14 -15 -16 -16 -17 -16 -16 -16 -16 -16 -16 -16 -16 -17 -17 -17 -17 -17 -17 -17 -18 -18 -18 -18 -18 -18 -18 -18 -18 -18 -19 -19 -19 -19 -19 -19 -19 -18 -21 -22 -22
-15 -15 -16 -16 -16 -16 -16 -16 -16 -16 -16 -17 -17 -17 -17 -17 -17 -17 -17 -18 -18 -18 -18 -18 -18 -19 -20 -20 -20 -20 -20 -20 -20 -20 -20 -20 -20 -21 -21 -22 -22 -22 -23
-16 -16 -16 -15 -16 -16 -16 -16 -17 -17 -17 -17 -17 -18 -18 -18 -18 -18 -18 -18 -18 -19 -19 -20 -20 -20 -21 -21 -21 -21 -21 -21 -22 -22 -22 -23 -23 -23 -24 -24 -23 -23 -23
-15 -15 -16 -16 -17 -16 -17 -17 -17 -17 -17 -18 -18 -18 -18 -18 -19 -19 -19 -19 -19 -19 -19 -20 -20 -21 -21 -21 -22 -22 -22 -24 -24 -25 -25 -25 -25 -25 -25 -25 -25 -24 -24
-16 -16 -16 -17 -17 -17 -17 -17 -17 -18 -18 -18 -19 -19 -19 -19 -19 -19 -19 -19 -19 -20 -20 -21 -21 -22 -22 -22 -23 -24 -25 -25 -25 -25 -25 -25 -25 -25 -26 -26 -26 -25 -24
-16 -17 -17 -18 -18 -18 -17 -18 -18 -18 -19 -19 -19 -19 -20 -20 -20 -20 -20 -20 -20 -20 -21 -21 -21 -22 -22 -24 -25 -26 -25 -25 -25 -25 -26 -26 -26 -26 -26 -26 -26 -26 -26
-17 -17 -18 -18 -18 -18 -18 -18 -19 -19 -20 -20 -20 -20 -20 -20 -20 -21 -21 -22 -22 -22 -22 -22 -22 -22 -24 -25 -26 -26 -26 -26 -26 -26 -26 -26 -26 -26 -26 -26 -26 -26 -26
-17 -18 -18 -18 -18 -18 -18 -19 -20 -20 -20 -21 -21 -21 -21 -21 -22 -22 -23 -23 -23 -23 -23 -23 -23 -25 -26 -26 -27 -27 -27 -27 -27 -27 -27 -27 -27 -27 -27 -26 -26 -26 -26
-17 -17 -17 -18 -18 -18 -19 -20 -21 -21 -21 -21 -22 -22 -22 -23 -23 -23 -24 -24 -24 -24 -25 -26 -27 -27 -27 -27 -27 -27 -27 -27 -27 -27 -27 -27 -27 -27 -27 -27 -26 -26 -25
-17 -18 -18 -19 -19 -20 -21 -20 -21 -21 -22 -22 -22 -22 -23 -23 -24 -25 -24 -25 -25 -26 -27 -28 -28 -28 -28 -28 -28 -28 -27 -27 -27 -28 -28 -27 -27 -27 -27 -27 -27 -27 -26
-19 -19 -20 -20 -20 -21 -21 -21 -21 -22 -22 -22 -23 -23 -24 -24 -25 -25 -25 -26 -27 -29 -29 -29 -29 -28 -28 -28 -28 -28 -27 -27 -28 -28 -28 -28 -28 -27 -28 -28 -28 -28 -28
-20 -20 -20 -21 -21 -21 -22 -21 -21 -21 -22 -23 -24 -24 -24 -25 -26 -26 -28 -29 -29 -29 -29 -29 -29 -29 -29 -28 -28 -28 -28 -28 -28 -28 -28 -28 -29 -30 -30 -30 -30 -30 -30
-20 -21 -21 -21 -21 -21 -21 -23 -23 -24 -24 -25 -25 -26 -26 -26 -27 -28 -29 -29 -29 -29 -29 -29 -29 -29 -29 -29 -29 -28 -28 -28 -28 -28 -28 -30 -30 -30 -30 -30 -29 -29 -29
-21 -21 -21 -21 -22 -23 -23 -24 -24 -25 -25 -26 -26 -26 -27 -26 -28 -29 -30 -30 -29 -29 -29 -29 -29 -29 -29 -29 -29 -28 -28 -28 -29 -29 -30 -30 -29 -29 -29 -29 -29 -29 -29
-21 -22 -23 -23 -23 -23 -23 -24 -25 -26 -26 -26 -27 -27 -27 -28 -29 -30 -30 -30 -30 -30 -30 -30 -29 -29 -29 -29 -29 -28 -28 -29 -30 -30 -29 -29 -29 -29 -29 -29 -29 -29 -29
-21 -22 -23 -23 -23 -23 -24 -25 -26 -26 -27 -28 -28 -29 -30 -30 -30 -30 -30 -30 -30 -30 -30 -30 -30 -30 -29 -29 -29 -29 -29 -30 -30 -30 -29 -29 -28 -29 -29 -29 -29 -30 -30
-22 -23 -24 -24 -23 -24 -25 -26 -26 -27 -28 -28 -29 -30 -30 -30 -30 -30 -30 -30 -30 -30 -30 -30 -30 -30 -29 -29 -29 -29 -30 -30 -30 -29 -29 -29 -29 -29 -28 -29 -30 -30 -30
-23 -24 -24 -24 -25 -25 -26 -27 -28 -28 -28 -30 -30 -30 -30 -31 -31 -31 -30 -30 -30 -30 -30 -30 -30 -30 -30 -30 -29 -30 -31 -30 -30 -29 -29 -29 -28 -29 -30 -30 -30 -30 -30
-23 -24 -24 -25 -26 -27 -27 -28 -28 -29 -30 -30 -30 -31 -31 -31 -31 -31 -31 -31 -31 -31 -31 -31 -32 -32 -32 -31 -30 -31 -31 -31 -30 -29 -28 -28 -29 -29 -29 -30 -30 -30 -30
-25 -25 -25 -27 -27 -27 -28 -29 -30 -30 -30 -30 -31 -31 -31 -31 -31 -31 -31 -32 -32 -33 -34 -34 -34 -34 -34 -32 -32 -32 -32 -31 -30 -30 -29 -29 -29 -29 -29 -29 -30 -30 -30
-26 -26 -27 -27 -27 -28 -29 -30 -30 -30 -31 -31 -31 -31 -31 -31 -32 -33 -33 -34 -35 -35 -35 -35 -35 -35 -35 -34 -33 -33 -32 -31 -31 -30 -30 -29 -28 -28 -29 -29 -29 -29 -29
-27 -27 -27 -28 -28 -30 -30 -30 -30 -31 -31 -31 -31 -31 -32 -33 -34 -34 -35 -35 -36 -36 -36 -36 -35 -35 -35 -34 -33 -33 -32 -32 -31 -31 -30 -29 -28 -28 -29 -29 -29 -29 -30

GFSMW_500_temp_012.txt.gz
Temp
-14 -14 -14 -14 -14 -14 -15 -15 -15 -15 -15 -15 -15 -15 -16 -16 -16 -16 -16 -16 -16 -16 -16 -16 -16 -16 -16 -16 -16 -16 -16 -17 -17 -17 -17 -17 -17 -17 -17 -17 -17 -17 -17
-14 -14 -14 -14 -15 -15 -16 -16 -16 -15 -16 -16 -15 -15 -15 -15 -16 -16 -16 -16 -16 -15 -15 -15 -16 -16 -16 -16 -17 -17 -18 -18 -18 -18 -18 -18 -18 -18 -18 -18 -17 -17 -17
-14 -14 -14 -15 -15 -16 -16 -16 -16 -16 -15 -15 -15 -15 -16 -16 -16 -16 -16 -16 -16 -16 -16 -16 -16 -16 -17 -17 -18 -18 -18 -18 -19 -19 -19 -18 -18 -19 -19 -19 -18 -18 -18
-14 -14 -15 -15 -15 -15 -15 -15 -15 -16 -16 -17 -16 -16 -16 -16 -17 -17 -17 -17 -17 -17 -17 -18 -18 -18 -18 -18 -18 -18 -18 -19 -19 -19 -19 -19 -19 -19 -19 -20 -20 -19 -19
-14 -14 -14 -15 -15 -15 -15 -16 -16 -17 -17 -17 -16 -16 -16 -17 -17 -17 -17 -18 -18 -18 -19 -19 -19 -19 -19 -19 -19 -19 -19 -19 -19 -19 -19 -20 -20 -20 -20 -19 -20 -21 -20
-15 -15 -15 -16 -16 -16 -16 -16 -16 -17 -17 -17 -17 -17 -17 -17 -17 -18 -18 -19 -19 -19 -19 -19 -20 -20 -20 -20 -20 -20 -20 -21 -21 -21 -21 -21 -21 -21 -21 -21 -20 -21 -22
-15 -16 -16 -16 -16 -16 -16 -16 -16 -17 -17 -17 -17 -17 -18 -19 -19 -19 -19 -19 -20 -20 -20 -20 -20 -20 -21 -21 -21 -22 -22 -22 -22 -22 -23 -23 -23 -23 -22 -22 -22 -22 -22
-16 -16 -15 -16 -16 -16 -16 -16 -16 -17 -17 -18 -18 -19 -19 -19 -20 -20 -20 -21 -21 -20 -21 -20 -20 -21 -21 -21 -22 -22 -22 -23 -24 -24 -24 -25 -25 -25 -24 -25 -25 -25 -25
-15 -16 -16 -16 -16 -16 -16 -16 -16 -17 -18 -18 -19 -19 -20 -20 -21 -21 -21 -21 -22 -22 -21 -21 -21 -21 -21 -22 -22 -23 -23 -25 -25 -24 -25 -25 -25 -25 -25 -25 -26 -25 -25
-15 -16 -16 -16 -16 -16 -17 -17 -17 -18 -18 -19 -19 -20 -20 -21 -21 -21 -22 -22 -22 -22 -22 -23 -22 -22 -22 -23 -24 -24 -24 -25 -26 -27 -27 -26 -26 -26 -26 -26 -26 -26 -26
-16 -16 -16 -16 -17 -18 -18 -18 -19 -19 -19 -19 -20 -20 -21 -21 -21 -22 -22 -22 -23 -23 -23 -23 -23 -23 -24 -25 -25 -26 -27 -28 -28 -27 -27 -27 -26 -26 -26 -27 -27 -26 -26
-17 -18 -18 -18 -18 -17 -18 -18 -19 -19 -20 -20 -21 -21 -21 -22 -23 -23 -23 -23 -23 -23 -24 -24 -24 -26 -27 -27 -28 -28 -28 -28 -28 -28 -28 -28 -28 -28 -27 -27 -27 -27 -27
-18 -17 -17 -17 -18 -18 -19 -19 -20 -20 -21 -21 -21 -22 -23 -23 -23 -23 -24 -24 -24 -25 -26 -26 -27 -29 -29 -29 -29 -29 -29 -29 -29 -28 -28 -28 -28 -28 -27 -27 -27 -27 -27
-16 -17 -18 -18 -19 -19 -19 -20 -21 -21 -21 -21 -22 -23 -23 -24 -24 -24 -24 -24 -25 -26 -28 -29 -30 -30 -30 -30 -29 -29 -29 -29 -29 -28 -28 -28 -28 -28 -28 -27 -27 -27 -27
-17 -18 -18 -19 -20 -20 -20 -21 -21 -22 -22 -23 -23 -23 -23 -24 -25 -25 -25 -26 -27 -29 -30 -30 -30 -30 -30 -30 -30 -29 -29 -29 -29 -29 -29 -29 -28 -28 -28 -28 -28 -28 -28
-18 -19 -20 -20 -20 -21 -21 -21 -22 -23 -23 -24 -24 -24 -25 -25 -26 -26 -27 -28 -30 -30 -30 -30 -30 -30 -30 -30 -30 -29 -29 -29 -29 -29 -29 -29 -29 -28 -28 -28 -28 -29 -29
-19 -20 -21 -21 -21 -22 -22 -22 -23 -24 -24 -25 -25 -26 -26 -26 -27 -28 -29 -30 -30 -30 -30 -30 -30 -30 -30 -30 -30 -29 -29 -29 -29 -29 -29 -29 -29 -28 -29 -30 -30 -29 -29
-20 -21 -21 -21 -22 -23 -23 -24 -24 -24 -25 -25 -26 -27 -27 -27 -28 -30 -30 -30 -30 -31 -31 -30 -30 -30 -30 -30 -30 -29 -29 -29 -29 -29 -29 -28 -29 -30 -30 -29 -29 -29 -29
-21 -21 -22 -22 -22 -23 -24 -24 -24 -25 -26 -26 -27 -27 -28 -30 -31 -30 -31 -31 -31 -31 -31 -31 -31 -31 -30 -30 -30 -30 -30 -29 -29 -29 -29 -29 -30 -29 -29 -29 -29 -29 -30
-21 -22 -22 -23 -24 -25 -25 -25 -26 -26 -26 -27 -27 -28 -30 -30 -30 -31 -31 -31 -31 -31 -31 -31 -31 -30 -30 -30 -30 -30 -30 -30 -30 -30 -29 -30 -29 -29 -29 -29 -30 -30 -30
-22 -23 -24 -25 -24 -25 -26 -26 -26 -27 -27 -29 -29 -30 -31 -30 -31 -31 -31 -31 -31 -31 -31 -31 -32 -32 -32 -31 -31 -30 -30 -30 -30 -30 -31 -30 -29 -29 -29 -29 -30 -30 -31
-23 -24 -25 -26 -25 -26 -27 -27 -27 -28 -29 -30 -31 -31 -31 -31 -31 -31 -31 -31 -31 -32 -33 -33 -34 -34 -35 -34 -33 -32 -31 -31 -31 -31 -30 -30 -29 -29 -30 -30 -30 -30 -30
-25 -25 -26 -27 -27 -28 -28 -28 -29 -30 -31 -31 -31 -31 -31 -31 -31 -31 -31 -32 -33 -34 -34 -35 -35 -35 -36 -35 -35 -34 -32 -32 -32 -31 -31 -30 -29 -29 -30 -29 -30 -30 -30
-26 -26 -27 -27 -28 -28 -29 -29 -30 -30 -31 -31 -31 -31 -31 -31 -31 -32 -33 -34 -34 -35 -35 -35 -35 -35 -36 -36 -35 -34 -33 -33 -32 -32 -31 -30 -29 -29 -29 -29 -29 -29 -30
-27 -27 -28 -29 -29 -29 -30 -30 -31 -31 -30 -31 -31 -31 -31 -31 -32 -33 -34 -35 -35 -36 -36 -35 -36 -36 -36 -36 -35 -34 -33 -33 -32 -32 -31 -30 -30 -29 -29 -29 -29 -30 -29
-28 -28 -29 -29 -30 -30 -30 -31 -31 -31 -31 -31 -31 -31 -31 -32 -33 -34 -35 -36 -36 -36 -36 -36 -36 -36 -35 -35 -35 -34 -34 -33 -33 -32 -32 -30 -30 -30 -29 -29 -29 -29 -29

GFSMW_500_temp_015.txt.gz
Temp
-14 -13 -14 -14 -14 -14 -14 -15 -15 -15 -15 -15 -15 -15 -16 -16 -16 -16 -15 -15 -15 -15 -15 -15 -15 -15 -15 -16 -16 -16 -17 -17 -18 -17 -18 -18 -18 -18 -18 -18 -18 -17 -17
-14 -14 -14 -14 -15 -15 -15 -15 -15 -15 -16 -16 -16 -15 -15 -16 -15 -15 -15 -15 -15 -16 -16 -16 -16 -17 -17 -17 -18 -18 -17 -17 -18 -18 -18 -18 -19 -19 -19 -18 -18 -18 -18
-14 -14 -14 -15 -15 -15 -15 -16 -16 -16 -16 -16 -15 -15 -15 -15 -15 -15 -16 -17 -17 -17 -17 -18 -18 -18 -18 -18 -18 -18 -19 -19 -19 -19 -19 -19 -19 -20 -20 -19 -19 -19 -18
-14 -15 -15 -15 -15 -16 -16 -16 -16 -16 -16 -16 -16 -15 -15 -16 -16 -17 -17 -17 -18 -18 -18 -18 -19 -19 -19 -19 -19 -19 -19 -20 -20 -19 -19 -20 -20 -20 -20 -20 -20 -20 -20
-15 -15 -15 -15 -16 -16 -16 -16 -16 -16 -16 -16 -16 -16 -17 -17 -17 -17 -17 -18 -18 -19 -19 -19 -19 -20 -20 -20 -21 -20 -20 -20 -21 -20 -20 -20 -20 -20 -21 -21 -21 -21 -20
-15 -15 -15 -15 -16 -16 -16 -16 -16 -16 -17 -17 -17 -17 -17 -17 -17 -18 -19 -19 -20 -19 -20 -20 -20 -21 -21 -21 -21 -21 -21 -21 -21 -21 -21 -21 -22 -21 -21 -22 -22 -22 -22
-15 -16 -16 -16 -16 -16 -16 -16 -16 -16 -16 -17 -17 -17 -18 -18 -18 -19 -19 -20 -20 -21 -20 -20 -21 -21 -22 -21 -21 -21 -21 -21 -21 -21 -22 -22 -23 -24 -23 -23 -22 -22 -22
-15 -16 -16 -16 -16 -16 -16 -16 -16 -17 -17 -17 -17 -18 -19 -19 -20 -21 -21 -21 -21 -21 -21 -21 -22 -22 -22 -22 -22 -22 -22 -21 -22 -22 -23 -24 -24 -25 -24 -24 -25 -24 -23
-15 -15 -15 -16 -16 -16 -16 -16 -16 -17 -17 -18 -19 -19 -19 -20 -20 -21 -21 -21 -21 -22 -22 -22 -23 -23 -23 -22 -23 -23 -23 -23 -23 -24 -26 -27 -27 -26 -25 -25 -25 -25 -24
-15 -16 -16 -15 -16 -16 -16 -17 -18 -18 -18 -19 -19 -19 -20 -20 -21 -21 -22 -22 -23 -23 -23 -23 -24 -23 -23 -23 -24 -24 -25 -25 -27 -28 -28 -28 -27 -27 -27 -26 -27 -27 -26
-16 -16 -16 -16 -17 -17 -17 -17 -18 -18 -18 -19 -20 -20 -21 -21 -22 -22 -22 -23 -23 -24 -24 -24 -24 -24 -25 -26 -27 -28 -29 -29 -29 -29 -29 -29 -28 -28 -28 -28 -28 -27 -27
-17 -17 -17 -17 -17 -17 -17 -18 -18 -19 -19 -20 -21 -21 -22 -22 -22 -23 -23 -24 -24 -24 -24 -25 -25 -26 -28 -29 -30 -30 -30 -30 -30 -30 -30 -29 -29 -29 -29 -28 -28 -28 -27
-17 -17 -17 -17 -18 -18 -18 -19 -19 -20 -20 -20 -21 -21 -22 -22 -23 -24 -24 -24 -25 -25 -26 -27 -28 -29 -30 -30 -31 -30 -30 -30 -30 -30 -30 -29 -29 -29 -29 -29 -28 -28 -28
-17 -17 -17 -17 -18 -18 -19 -20 -20 -21 -21 -22 -22 -23 -23 -24 -25 -25 -25 -25 -26 -27 -28 -29 -30 -31 -31 -31 -31 -31 -31 -30 -30 -30 -30 -30 -29 -29 -29 -29 -28 -28 -28
-17 -17 -17 -17 -18 -19 -20 -20 -21 -22 -23 -23 -24 -24 -25 -25 -25 -25 -26 -27 -27 -29 -30 -30 -31 -31 -31 -31 -31 -30 -30 -30 -30 -30 -30 -29 -29 -29 -29 -28 -28 -28 -28
-17 -18 -18 -19 -20 -20 -21 -22 -22 -22 -24 -25 -25 -25 -25 -26 -25 -26 -28 -29 -30 -30 -31 -31 -31 -31 -31 -31 -31 -30 -30 -30 -30 -30 -30 -30 -30 -29 -29 -29 -28 -28 -28
-18 -18 -19 -20 -21 -22 -22 -23 -23 -24 -25 -25 -25 -25 -26 -26 -27 -28 -30 -31 -31 -31 -31 -31 -31 -31 -31 -31 -31 -30 -30 -30 -30 -30 -30 -29 -29 -29 -29 -29 -28 -29 -29
-19 -20 -21 -22 -23 -23 -23 -23 -24 -25 -26 -26 -26 -26 -27 -28 -29 -30 -31 -31 -31 -31 -31 -31 -31 -31 -31 -31 -31 -31 -30 -30 -30 -30 -30 -29 -29 -29 -29 -29 -29 -30 -30
-21 -22 -22 -23 -23 -24 -24 -24 -25 -26 -26 -26 -27 -28 -29 -30 -31 -31 -31 -31 -31 -31 -31 -31 -31 -31 -31 -31 -31 -31 -31 -31 -30 -30 -30 -29 -29 -29 -29 -29 -30 -29 -29
-22 -22 -23 -22 -24 -24 -25 -26 -26 -27 -27 -27 -29 -30 -30 -31 -31 -31 -31 -31 -31 -31 -31 -32 -32 -33 -33 -33 -33 -32 -32 -32 -31 -31 -30 -30 -29 -29 -30 -29 -29 -29 -30
-22 -22 -22 -23 -24 -26 -27 -27 -27 -28 -28 -30 -30 -31 -31 -31 -31 -31 -31 -31 -31 -32 -33 -33 -34 -34 -35 -35 -35 -34 -34 -33 -33 -32 -31 -30 -30 -30 -29 -29 -29 -30 -30
-24 -24 -24 -25 -27 -28 -28 -28 -29 -29 -30 -30 -31 -31 -31 -31 -31 -31 -31 -32 -32 -33 -34 -35 -35 -36 -36 -35 -35 -35 -34 -34 -34 -33 -31 -31 -31 -29 -29 -29 -30 -30 -30
-25 -25 -26 -27 -28 -28 -29 -29 -29 -30 -30 -31 -31 -31 -31 -31 -31 -31 -32 -33 -33 -34 -35 -35 -35 -35 -36 -36 -36 -35 -35 -35 -34 -33 -33 -32 -31 -30 -30 -30 -29 -30 -30
-25 -27 -28 -28 -28 -29 -29 -30 -30 -30 -31 -31 -31 -31 -31 -31 -32 -32 -32 -33 -34 -35 -35 -36 -36 -36 -36 -36 -36 -36 -35 -35 -34 -33 -33 -32 -30 -30 -30 -30 -29 -30 -29
-26 -27 -28 -29 -29 -30 -30 -30 -30 -31 -31 -31 -31 -31 -32 -32 -32 -32 -33 -34 -35 -35 -36 -35 -35 -35 -36 -36 -36 -36 -35 -34 -34 -33 -32 -32 -31 -30 -30 -30 -29 -29 -29
-27 -28 -29 -29 -30 -30 -30 -31 -31 -31 -31 -31 -32 -32 -32 -32 -32 -33 -34 -35 -35 -36 -35 -35 -35 -35 -35 -35 -35 -35 -34 -34 -33 -33 -33 -32 -31 -31 -31 -30 -30 -30 -29

GFSMW_500_temp_021.txt.gz
Temp
-14 -13 -14 -14 -15 -15 -15 -15 -15 -16 -15 -16 -16 -16 -16 -16 -16 -16 -15 -16 -16 -15 -15 -16 -16 -16 -16 -16 -17 -17 -17 -17 -18 -17 -17 -17 -17 -17 -17 -18 -17 -17 -17
-14 -14 -14 -15 -15 -16 -16 -16 -16 -16 -16 -16 -16 -17 -17 -17 -16 -16 -16 -15 -15 -16 -16 -16 -16 -16 -17 -17 -17 -18 -17 -17 -18 -18 -18 -18 -18 -18 -18 -18 -18 -18 -18
-14 -14 -15 -15 -15 -16 -16 -16 -16 -16 -16 -17 -16 -17 -17 -16 -16 -16 -16 -16 -16 -17 -17 -18 -18 -18 -18 -18 -18 -18 -18 -18 -19 -19 -20 -20 -19 -19 -20 -20 -18 -18 -19
-14 -15 -15 -15 -15 -16 -16 -16 -16 -16 -16 -17 -16 -17 -16 -16 -16 -16 -16 -17 -18 -18 -18 -18 -18 -19 -19 -19 -19 -19 -20 -20 -20 -20 -21 -21 -21 -20 -20 -21 -21 -21 -20
-15 -15 -15 -15 -16 -16 -16 -16 -16 -16 -16 -16 -16 -16 -16 -17 -17 -17 -18 -18 -19 -19 -19 -19 -19 -20 -20 -20 -20 -20 -21 -21 -21 -21 -21 -22 -22 -23 -22 -21 -21 -23 -22
-15 -15 -15 -16 -16 -16 -16 -16 -16 -16 -16 -16 -16 -16 -17 -17 -18 -18 -19 -19 -19 -19 -20 -20 -20 -20 -20 -20 -21 -21 -21 -22 -22 -22 -22 -23 -23 -23 -23 -23 -23 -22 -23
-15 -16 -16 -16 -16 -16 -16 -16 -16 -16 -16 -16 -16 -17 -18 -18 -18 -18 -19 -19 -20 -20 -20 -20 -21 -21 -21 -21 -22 -22 -22 -23 -23 -23 -24 -24 -24 -24 -24 -24 -24 -24 -24
-16 -16 -16 -16 -16 -16 -16 -16 -16 -16 -17 -17 -17 -18 -18 -18 -18 -19 -19 -20 -20 -21 -21 -21 -22 -22 -22 -22 -23 -24 -24 -24 -25 -25 -25 -25 -25 -25 -25 -25 -26 -26 -26
-16 -16 -17 -16 -16 -16 -16 -16 -17 -17 -18 -18 -18 -18 -18 -19 -19 -20 -21 -21 -21 -22 -22 -23 -23 -23 -24 -25 -25 -25 -25 -26 -26 -27 -27 -28 -28 -28 -29 -29 -29 -29 -28
-16 -16 -17 -17 -16 -16 -17 -17 -17 -18 -18 -17 -18 -18 -19 -20 -20 -20 -21 -22 -22 -22 -23 -24 -24 -24 -25 -26 -26 -26 -27 -28 -29 -29 -29 -29 -30 -30 -30 -30 -30 -29 -28
-16 -17 -16 -16 -16 -17 -17 -17 -17 -17 -18 -18 -18 -19 -20 -21 -21 -22 -22 -22 -23 -24 -24 -25 -25 -26 -27 -28 -28 -29 -30 -30 -30 -31 -31 -31 -31 -30 -31 -30 -30 -30 -30
-17 -16 -16 -16 -17 -17 -17 -18 -18 -18 -18 -19 -20 -20 -21 -21 -22 -22 -23 -24 -24 -25 -25 -26 -27 -29 -29 -30 -30 -31 -31 -31 -31 -31 -31 -31 -31 -31 -31 -31 -31 -30 -30
-16 -17 -17 -17 -17 -17 -17 -18 -18 -19 -19 -20 -21 -22 -23 -23 -23 -24 -24 -25 -25 -26 -27 -29 -30 -30 -31 -31 -31 -31 -31 -31 -31 -31 -31 -31 -31 -31 -31 -31 -30 -30 -30
-17 -17 -17 -17 -17 -17 -18 -18 -19 -19 -20 -22 -23 -23 -24 -24 -24 -25 -26 -26 -27 -28 -29 -30 -31 -31 -31 -31 -31 -31 -31 -31 -31 -31 -31 -31 -31 -31 -31 -31 -31 -30 -30
-17 -17 -17 -17 -18 -18 -19 -19 -20 -21 -22 -23 -24 -24 -25 -25 -26 -26 -27 -28 -29 -30 -30 -31 -31 -31 -31 -31 -31 -31 -31 -31 -31 -31 -31 -31 -31 -31 -31 -31 -31 -30 -30
-17 -17 -17 -17 -18 -18 -19 -21 -22 -23 -23 -24 -24 -25 -25 -27 -27 -28 -29 -29 -30 -31 -31 -31 -31 -31 -31 -31 -31 -31 -31 -31 -31 -31 -31 -31 -31 -31 -31 -31 -30 -30 -30
-17 -17 -18 -18 -19 -21 -22 -23 -23 -24 -24 -24 -25 -26 -27 -28 -29 -29 -29 -30 -30 -31 -31 -31 -31 -31 -31 -31 -32 -32 -32 -33 -33 -33 -33 -32 -32 -32 -31 -30 -30 -30 -30
-18 -18 -18 -20 -21 -22 -23 -23 -23 -24 -25 -26 -26 -28 -28 -29 -29 -30 -30 -30 -31 -31 -31 -31 -31 -31 -32 -32 -33 -33 -34 -34 -35 -34 -34 -34 -34 -33 -32 -31 -30 -30 -30
-18 -19 -20 -21 -22 -23 -23 -23 -24 -25 -26 -27 -28 -29 -29 -30 -30 -31 -31 -31 -31 -31 -31 -31 -32 -32 -33 -33 -34 -34 -35 -35 -35 -35 -35 -35 -35 -34 -33 -31 -30 -30 -30
-19 -20 -21 -22 -23 -23 -24 -25 -25 -27 -28 -29 -29 -29 -30 -30 -31 -31 -31 -31 -31 -32 -32 -32 -32 -33 -34 -35 -35 -35 -35 -35 -35 -36 -35 -35 -35 -34 -33 -32 -31 -30 -30
-20 -21 -22 -22 -23 -24 -25 -26 -27 -28 -29 -30 -30 -30 -31 -31 -31 -31 -32 -32 -32 -32 -32 -32 -33 -34 -34 -34 -34 -35 -35 -35 -35 -36 -35 -35 -34 -34 -33 -32 -31 -30 -30
-22 -22 -23 -23 -24 -25 -26 -28 -28 -29 -30 -30 -31 -31 -32 -32 -32 -32 -32 -32 -32 -32 -32 -33 -34 -34 -34 -34 -34 -34 -35 -35 -35 -36 -35 -35 -35 -34 -33 -32 -31 -30 -30
-23 -23 -24 -24 -25 -26 -27 -29 -29 -30 -30 -31 -31 -32 -32 -33 -33 -32 -33 -32 -32 -32 -33 -33 -34 -34 -34 -34 -34 -35 -35 -36 -36 -36 -35 -35 -34 -34 -32 -31 -30 -30 -30
-23 -23 -24 -25 -26 -27 -29 -29 -30 -30 -31 -31 -32 -32 -33 -33 -33 -33 -32 -32 -33 -33 -33 -34 -34 -34 -34 -34 -34 -35 -35 -35 -35 -35 -34 -34 -34 -33 -32 -31 -30 -30 -30
-24 -24 -26 -27 -28 -29 -29 -30 -30 -31 -32 -32 -32 -33 -33 -32 -33 -33 -33 -33 -33 -33 -34 -34 -34 -34 -34 -34 -35 -34 -34 -34 -34 -34 -34 -33 -33 -32 -31 -31 -30 -30 -30
-25 -25 -27 -28 -29 -30 -30 -31 -32 -32 -32 -33 -33 -33 -32 -33 -33 -33 -33 -33 -33 -34 -34 -34 -35 -35 -34 -34 -34 -34 -34 -34 -34 -33 -33 -33 -33 -32 -32 -31 -31 -31 -30

GFSMW_500_temp_024.txt.gz
Temp
-13 -14 -14 -14 -14 -15 -15 -15 -16 -16 -16 -16 -16 -16 -16 -16 -16 -16 -16 -16 -15 -16 -15 -15 -15 -16 -16 -16 -16 -16 -16 -16 -17 -16 -16 -16 -16 -16 -17 -17 -16 -16 -16
-14 -14 -14 -14 -15 -15 -16 -16 -16 -17 -17 -17 -16 -17 -17 -17 -17 -16 -16 -16 -16 -16 -16 -16 -16 -16 -16 -17 -17 -17 -17 -17 -18 -18 -17 -17 -17 -17 -18 -18 -18 -18 -18
-14 -14 -15 -15 -15 -16 -16 -16 -16 -16 -17 -17 -16 -17 -17 -17 -16 -16 -16 -16 -17 -17 -17 -17 -17 -17 -17 -18 -18 -18 -18 -18 -19 -19 -19 -19 -19 -19 -19 -19 -20 -21 -21
-14 -14 -15 -15 -15 -16 -16 -16 -16 -16 -17 -17 -17 -16 -16 -16 -17 -17 -17 -17 -17 -17 -18 -18 -18 -18 -18 -19 -19 -19 -20 -20 -20 -20 -20 -21 -21 -21 -20 -21 -22 -22 -22
-15 -15 -15 -15 -16 -16 -16 -16 -17 -16 -16 -16 -17 -17 -17 -17 -17 -17 -17 -17 -17 -18 -18 -19 -19 -19 -19 -20 -19 -20 -21 -21 -21 -21 -21 -22 -22 -24 -23 -22 -22 -23 -24
-15 -15 -16 -15 -15 -16 -16 -17 -17 -17 -16 -16 -17 -17 -17 -17 -17 -17 -17 -18 -18 -18 -19 -19 -20 -20 -21 -21 -21 -21 -22 -22 -22 -23 -23 -23 -23 -24 -25 -25 -24 -24 -24
-16 -16 -16 -16 -15 -15 -16 -16 -17 -17 -17 -16 -16 -16 -16 -17 -17 -17 -18 -18 -18 -19 -20 -20 -21 -21 -22 -22 -22 -22 -22 -22 -23 -23 -24 -24 -25 -25 -25 -25 -26 -25 -25
-16 -16 -16 -16 -16 -16 -16 -16 -17 -17 -17 -17 -17 -17 -17 -17 -18 -18 -18 -19 -20 -20 -21 -22 -22 -22 -23 -22 -22 -23 -23 -23 -24 -24 -25 -26 -27 -26 -27 -27 -27 -27 -27
-16 -16 -16 -16 -17 -17 -17 -17 -16 -17 -17 -17 -18 -18 -18 -18 -18 -19 -20 -20 -21 -22 -22 -23 -23 -23 -24 -24 -24 -24 -25 -26 -27 -28 -28 -28 -28 -29 -29 -29 -29 -29 -29
-16 -16 -17 -17 -17 -16 -16 -16 -16 -17 -17 -17 -17 -17 -17 -18 -20 -21 -21 -22 -22 -23 -23 -24 -24 -24 -24 -25 -26 -27 -28 -29 -30 -30 -30 -30 -31 -31 -31 -31 -31 -31 -31
-17 -17 -17 -17 -17 -17 -16 -16 -16 -17 -17 -17 -17 -18 -19 -20 -21 -22 -22 -23 -23 -24 -25 -25 -26 -26 -26 -28 -29 -29 -30 -31 -31 -31 -31 -31 -31 -31 -31 -31 -31 -31 -31
-16 -17 -17 -17 -16 -17 -17 -17 -17 -17 -18 -18 -19 -20 -21 -21 -23 -23 -24 -24 -25 -26 -26 -27 -28 -29 -29 -30 -31 -31 -31 -31 -31 -31 -31 -31 -31 -31 -31 -31 -31 -31 -31
-17 -16 -17 -17 -17 -17 -17 -17 -17 -18 -18 -19 -21 -22 -22 -23 -24 -24 -25 -26 -27 -27 -28 -29 -29 -30 -30 -31 -31 -31 -31 -31 -31 -31 -31 -31 -31 -31 -31 -31 -31 -31 -31
-17 -17 -17 -18 -17 -17 -17 -17 -18 -19 -19 -21 -22 -23 -23 -23 -24 -25 -26 -27 -28 -29 -29 -30 -30 -30 -31 -31 -31 -31 -31 -31 -31 -31 -31 -31 -31 -31 -31 -31 -31 -31 -31
-17 -17 -17 -17 -17 -17 -18 -19 -19 -20 -21 -22 -23 -23 -23 -24 -26 -26 -27 -28 -29 -29 -30 -30 -30 -31 -31 -31 -31 -31 -31 -31 -31 -32 -32 -32 -32 -32 -32 -31 -31 -31 -31
-17 -17 -17 -17 -18 -18 -18 -19 -20 -21 -22 -22 -23 -23 -24 -24 -27 -28 -29 -30 -30 -30 -31 -31 -31 -31 -31 -31 -31 -32 -32 -32 -33 -33 -33 -34 -34 -34 -33 -32 -32 -32 -31
-18 -17 -17 -18 -18 -18 -19 -21 -21 -22 -23 -23 -24 -25 -25 -27 -29 -29 -30 -30 -31 -31 -31 -32 -32 -32 -32 -32 -32 -32 -33 -34 -34 -34 -35 -35 -35 -35 -35 -34 -33 -32 -32
-17 -17 -18 -18 -18 -20 -20 -21 -22 -23 -24 -24 -25 -27 -29 -29 -30 -30 -30 -31 -32 -32 -32 -32 -32 -32 -32 -32 -32 -33 -34 -34 -34 -35 -35 -35 -35 -35 -35 -34 -34 -33 -32
-18 -18 -19 -19 -20 -20 -20 -22 -23 -24 -25 -26 -28 -30 -31 -32 -31 -32 -32 -32 -32 -33 -32 -33 -32 -32 -33 -33 -34 -34 -34 -34 -34 -34 -35 -35 -35 -35 -35 -35 -34 -33 -32
-19 -19 -19 -19 -20 -22 -23 -23 -24 -25 -27 -28 -29 -30 -31 -31 -32 -33 -33 -33 -33 -33 -33 -33 -33 -33 -33 -34 -34 -34 -33 -34 -34 -35 -35 -35 -35 -36 -35 -35 -34 -33 -32
-19 -19 -20 -21 -22 -23 -23 -24 -25 -26 -28 -29 -30 -31 -31 -33 -33 -33 -34 -33 -33 -33 -33 -33 -33 -33 -34 -34 -34 -34 -34 -34 -35 -36 -36 -36 -36 -35 -35 -34 -34 -33 -32
-19 -20 -21 -22 -23 -23 -24 -24 -26 -28 -29 -30 -30 -31 -32 -32 -32 -33 -33 -33 -33 -33 -33 -33 -33 -34 -34 -34 -34 -34 -35 -35 -35 -36 -36 -36 -36 -35 -35 -34 -34 -33 -31
-20 -21 -22 -23 -23 -24 -25 -25 -27 -29 -30 -30 -31 -31 -32 -33 -33 -33 -33 -33 -33 -33 -33 -33 -33 -34 -34 -34 -34 -35 -35 -35 -35 -35 -35 -35 -35 -34 -34 -33 -33 -32 -31
-22 -22 -22 -23 -24 -25 -27 -29 -30 -30 -31 -31 -32 -32 -33 -33 -33 -33 -33 -33 -33 -33 -33 -33 -34 -34 -35 -34 -34 -34 -34 -34 -34 -34 -34 -34 -34 -33 -33 -32 -32 -31 -31
-22 -22 -23 -24 -25 -27 -29 -30 -31 -31 -32 -32 -32 -33 -33 -33 -33 -33 -33 -33 -33 -33 -33 -34 -34 -34 -35 -34 -34 -34 -34 -34 -34 -34 -34 -34 -34 -33 -33 -32 -32 -31 -30
-23 -23 -24 -25 -26 -28 -30 -31 -31 -32 -32 -32 -33 -33 -33 -32 -33 -33 -33 -33 -33 -33 -34 -34 -34 -34 -34 -34 -34 -34 -34 -34 -34 -33 -33 -34 -33 -33 -33 -32 -32 -31 -31

GFSMW_500_temp_027.txt.gz
Temp
-14 -14 -14 -14 -14 -15 -15 -15 -15 -15 -15 -15 -15 -16 -16 -16 -16 -16 -16 -16 -15 -16 -16 -16 -16 -16 -16 -16 -16 -16 -16 -16 -16 -16 -16 -15 -16 -16 -16 -16 -16 -16 -15
-14 -14 -15 -15 -15 -15 -15 -16 -16 -16 -16 -16 -16 -17 -17 -17 -17 -17 -16 -16 -16 -16 -16 -16 -15 -16 -16 -16 -16 -16 -16 -17 -17 -17 -17 -16 -17 -17 -18 -18 -18 -17 -17
-15 -15 -15 -15 -15 -15 -15 -16 -16 -16 -16 -16 -16 -17 -17 -17 -17 -17 -16 -16 -16 -16 -16 -16 -16 -16 -16 -16 -17 -17 -18 -18 -19 -20 -19 -19 -18 -18 -19 -20 -20 -20 -20
-15 -16 -16 -16 -15 -16 -16 -16 -16 -16 -17 -17 -17 -17 -17 -17 -16 -16 -17 -17 -17 -17 -17 -17 -17 -17 -18 -18 -18 -18 -19 -19 -20 -21 -22 -22 -21 -20 -19 -21 -21 -22 -22
-15 -15 -16 -16 -16 -16 -16 -16 -16 -16 -16 -17 -17 -17 -17 -17 -17 -17 -17 -17 -18 -18 -18 -18 -18 -19 -19 -19 -20 -20 -21 -21 -22 -22 -22 -22 -23 -23 -22 -21 -21 -22 -23
-15 -15 -16 -16 -16 -16 -17 -17 -17 -17 -16 -16 -16 -16 -16 -17 -17 -17 -17 -17 -18 -18 -19 -19 -19 -20 -20 -21 -22 -22 -22 -22 -22 -22 -22 -22 -22 -23 -23 -23 -22 -22 -23
-16 -16 -16 -15 -15 -16 -16 -17 -17 -17 -17 -17 -17 -17 -16 -16 -16 -17 -17 -18 -18 -19 -19 -20 -21 -21 -22 -22 -22 -22 -22 -22 -23 -23 -23 -23 -23 -23 -24 -25 -25 -25 -26
-16 -16 -17 -16 -16 -17 -17 -17 -17 -17 -17 -17 -17 -17 -17 -17 -17 -18 -19 -19 -20 -20 -21 -22 -22 -23 -23 -23 -23 -24 -24 -24 -25 -25 -25 -26 -26 -27 -28 -28 -28 -28 -27
-16 -17 -17 -17 -17 -17 -17 -17 -17 -17 -16 -17 -17 -17 -17 -17 -18 -19 -20 -21 -22 -22 -23 -23 -24 -24 -24 -24 -25 -26 -26 -27 -28 -28 -29 -29 -30 -30 -30 -32 -31 -30 -30
-17 -17 -18 -17 -17 -18 -17 -17 -17 -17 -17 -17 -17 -17 -18 -18 -19 -20 -21 -22 -23 -23 -24 -24 -25 -26 -26 -27 -28 -28 -29 -30 -30 -31 -31 -31 -31 -31 -31 -31 -32 -32 -31
-18 -18 -17 -17 -17 -17 -17 -17 -17 -17 -17 -17 -18 -18 -18 -19 -20 -22 -23 -23 -23 -24 -25 -26 -27 -28 -29 -29 -30 -30 -30 -30 -31 -31 -31 -31 -31 -31 -31 -31 -31 -31 -32
-18 -17 -17 -17 -17 -17 -17 -17 -17 -17 -17 -18 -18 -19 -19 -20 -21 -23 -24 -24 -25 -26 -27 -29 -29 -30 -30 -30 -31 -31 -31 -31 -31 -31 -31 -31 -31 -31 -31 -31 -31 -31 -31
-17 -17 -17 -17 -17 -17 -17 -17 -17 -18 -18 -18 -19 -20 -21 -21 -22 -23 -24 -25 -26 -27 -28 -30 -30 -31 -31 -31 -31 -31 -32 -32 -31 -31 -31 -31 -31 -31 -32 -32 -31 -31 -31
-18 -18 -18 -17 -17 -17 -18 -18 -18 -18 -19 -19 -20 -21 -21 -21 -22 -23 -23 -25 -27 -28 -30 -31 -31 -31 -31 -31 -32 -32 -32 -32 -32 -32 -32 -32 -32 -32 -32 -32 -32 -32 -32
-18 -18 -18 -17 -17 -18 -18 -18 -18 -19 -19 -20 -21 -21 -22 -23 -23 -25 -27 -29 -29 -30 -31 -32 -32 -32 -32 -32 -32 -32 -32 -32 -32 -32 -33 -33 -34 -34 -34 -33 -33 -33 -33
-18 -18 -18 -18 -18 -18 -18 -18 -19 -20 -20 -21 -21 -23 -23 -24 -27 -29 -30 -31 -32 -31 -32 -33 -33 -33 -33 -32 -32 -32 -32 -32 -33 -33 -34 -34 -34 -34 -34 -34 -34 -34 -34
-18 -18 -18 -18 -18 -18 -18 -19 -19 -20 -21 -22 -23 -24 -25 -27 -29 -30 -31 -31 -31 -32 -33 -33 -33 -33 -33 -33 -33 -33 -33 -33 -34 -33 -33 -33 -34 -34 -34 -35 -35 -35 -35
-18 -18 -18 -18 -18 -18 -19 -20 -20 -21 -22 -23 -24 -25 -27 -28 -30 -31 -32 -32 -33 -33 -33 -34 -33 -33 -33 -33 -33 -33 -34 -34 -34 -34 -34 -34 -34 -35 -35 -35 -35 -36 -35
-18 -18 -18 -18 -19 -20 -20 -20 -21 -22 -23 -24 -25 -26 -28 -30 -31 -32 -32 -34 -33 -33 -33 -33 -33 -33 -33 -33 -34 -34 -34 -34 -34 -35 -35 -35 -35 -36 -36 -36 -36 -36 -35
-18 -18 -19 -19 -20 -20 -21 -22 -22 -23 -24 -24 -26 -28 -30 -31 -32 -32 -33 -33 -33 -33 -33 -33 -34 -33 -33 -34 -34 -34 -34 -34 -35 -35 -36 -36 -36 -36 -36 -36 -35 -35 -35
-19 -19 -20 -20 -20 -21 -22 -23 -23 -23 -24 -26 -28 -30 -31 -32 -32 -33 -34 -34 -33 -33 -33 -33 -33 -33 -34 -34 -34 -34 -34 -34 -35 -35 -35 -35 -36 -36 -36 -36 -35 -35 -34
-19 -20 -20 -20 -21 -22 -22 -23 -23 -24 -25 -28 -30 -30 -31 -32 -33 -33 -33 -33 -33 -33 -33 -33 -33 -33 -34 -34 -34 -34 -34 -34 -34 -34 -35 -35 -35 -35 -35 -35 -35 -35 -34
-20 -20 -21 -21 -22 -23 -23 -23 -24 -26 -28 -30 -30 -31 -32 -33 -33 -33 -33 -33 -33 -33 -33 -33 -33 -33 -34 -34 -34 -34 -34 -34 -34 -34 -34 -34 -34 -34 -34 -34 -34 -33 -33
-20 -21 -22 -22 -23 -23 -24 -24 -26 -28 -29 -30 -31 -32 -32 -33 -32 -32 -33 -33 -33 -33 -33 -33 -33 -33 -34 -34 -34 -34 -34 -34 -34 -34 -34 -34 -34 -34 -33 -33 -32 -32 -32
-22 -22 -23 -23 -23 -24 -24 -25 -27 -29 -30 -31 -32 -32 -32 -32 -32 -32 -33 -33 -33 -33 -33 -33 -33 -33 -34 -34 -34 -34 -34 -34 -34 -34 -34 -34 -34 -34 -33 -33 -32 -32 -32
-22 -23 -23 -24 -24 -25 -26 -27 -29 -30 -31 -31 -32 -32 -32 -32 -32 -33 -33 -33 -33 -33 -34 -33 -33 -34 -34 -34 -34 -34 -34 -34 -34 -34 -33 -33 -33 -33 -33 -33 -32 -32 -32

GFSMW_500_temp_030.txt.gz
Temp
-14 -14 -14 -14 -14 -15 -15 -15 -15 -16 -15 -15 -16 -16 -17 -17 -17 -17 -17 -17 -16 -16 -16 -16 -16 -16 -16 -16 -16 -16 -16 -16 -16 -16 -16 -16 -16 -16 -16 -16 -16 -16 -16
-15 -15 -15 -16 -16 -16 -16 -15 -15 -15 -15 -16 -16 -17 -17 -17 -17 -17 -17 -17 -17 -17 -17 -17 -16 -16 -16 -16 -16 -16 -17 -17 -17 -17 -17 -17 -17 -18 -18 -18 -19 -19 -18
-15 -16 -16 -16 -16 -16 -16 -16 -16 -16 -16 -17 -17 -17 -17 -18 -17 -18 -18 -18 -17 -17 -17 -16 -16 -17 -17 -17 -17 -17 -18 -18 -18 -19 -19 -19 -18 -18 -19 -20 -20 -21 -21
-16 -16 -16 -16 -16 -16 -16 -16 -17 -17 -17 -17 -17 -17 -18 -18 -18 -18 -18 -17 -17 -17 -17 -17 -17 -18 -18 -18 -18 -19 -19 -19 -20 -20 -20 -20 -21 -20 -20 -20 -21 -22 -22
-16 -16 -16 -16 -16 -16 -17 -17 -17 -17 -17 -17 -18 -18 -18 -17 -17 -17 -17 -18 -18 -18 -18 -18 -18 -19 -19 -20 -20 -21 -21 -22 -22 -22 -22 -22 -22 -22 -22 -21 -21 -21 -22
-16 -16 -16 -16 -17 -17 -17 -17 -17 -17 -17 -17 -17 -17 -17 -17 -17 -16 -17 -17 -17 -18 -18 -19 -19 -20 -20 -21 -22 -22 -22 -23 -23 -23 -23 -23 -23 -23 -23 -23 -22 -22 -22
-16 -16 -16 -17 -17 -17 -17 -17 -17 -17 -17 -17 -17 -17 -17 -17 -17 -17 -17 -17 -18 -18 -19 -19 -20 -21 -22 -22 -23 -23 -23 -24 -24 -24 -24 -25 -25 -25 -25 -25 -24 -24 -25
-16 -16 -16 -17 -17 -17 -17 -17 -17 -17 -17 -17 -17 -17 -17 -17 -17 -17 -18 -18 -19 -19 -20 -21 -22 -22 -23 -23 -24 -24 -25 -25 -26 -27 -27 -28 -29 -29 -29 -29 -29 -28 -28
-16 -16 -16 -17 -17 -17 -17 -17 -17 -17 -17 -17 -17 -17 -18 -18 -18 -18 -19 -19 -20 -21 -22 -22 -23 -24 -24 -25 -25 -26 -27 -29 -29 -29 -30 -30 -30 -30 -30 -31 -31 -31 -30
-16 -17 -18 -18 -18 -18 -18 -17 -17 -17 -17 -17 -17 -17 -18 -18 -18 -19 -20 -21 -22 -22 -23 -24 -24 -25 -26 -27 -29 -30 -30 -30 -30 -31 -31 -31 -31 -31 -31 -31 -31 -31 -31
-17 -18 -18 -18 -18 -18 -17 -17 -17 -18 -17 -17 -18 -18 -18 -19 -20 -21 -22 -22 -23 -23 -24 -25 -27 -27 -29 -30 -31 -31 -31 -31 -31 -31 -31 -32 -32 -31 -31 -31 -31 -31 -31
-18 -18 -18 -18 -18 -18 -18 -17 -17 -17 -18 -18 -18 -19 -19 -20 -21 -21 -22 -22 -23 -24 -26 -28 -30 -31 -31 -32 -31 -32 -32 -32 -32 -32 -32 -32 -32 -32 -32 -32 -32 -31 -31
-19 -18 -18 -18 -18 -18 -18 -18 -18 -18 -19 -19 -19 -19 -20 -21 -21 -21 -21 -22 -23 -26 -29 -31 -31 -31 -32 -32 -32 -33 -33 -33 -33 -32 -32 -32 -32 -32 -32 -32 -32 -32 -32
-18 -18 -18 -18 -18 -18 -18 -18 -19 -18 -19 -19 -20 -20 -20 -20 -21 -22 -23 -24 -26 -29 -30 -31 -31 -32 -32 -32 -33 -33 -33 -33 -32 -32 -32 -32 -32 -33 -33 -33 -33 -33 -33
-18 -18 -18 -18 -18 -18 -18 -19 -18 -19 -19 -20 -20 -20 -20 -21 -22 -23 -24 -26 -29 -31 -32 -32 -32 -32 -32 -33 -33 -33 -33 -33 -33 -33 -33 -33 -33 -34 -34 -34 -33 -33 -33
-18 -18 -18 -18 -19 -18 -19 -19 -19 -19 -19 -20 -20 -21 -22 -23 -23 -24 -26 -29 -30 -32 -32 -33 -33 -33 -33 -33 -33 -33 -33 -33 -33 -33 -33 -34 -34 -34 -34 -34 -34 -34 -34
-19 -18 -18 -18 -18 -19 -19 -19 -19 -19 -20 -20 -21 -22 -23 -24 -25 -27 -28 -30 -31 -32 -33 -34 -34 -33 -33 -33 -33 -33 -33 -33 -33 -34 -34 -34 -35 -35 -35 -35 -35 -35 -35
-18 -19 -19 -19 -19 -19 -19 -19 -20 -20 -21 -22 -22 -23 -24 -25 -26 -28 -29 -30 -31 -33 -34 -34 -34 -33 -33 -33 -33 -33 -33 -34 -34 -34 -34 -35 -35 -36 -36 -36 -36 -36 -36
-19 -19 -19 -18 -19 -19 -20 -20 -20 -21 -22 -23 -24 -24 -24 -26 -28 -29 -30 -31 -32 -34 -34 -33 -33 -33 -33 -33 -33 -33 -34 -34 -34 -35 -35 -35 -35 -35 -36 -36 -36 -36 -36
-19 -18 -19 -19 -19 -20 -20 -21 -21 -22 -23 -23 -24 -24 -25 -28 -29 -30 -31 -32 -32 -33 -33 -33 -33 -33 -33 -33 -33 -33 -33 -34 -34 -34 -34 -35 -35 -35 -35 -36 -36 -36 -36
-19 -19 -19 -20 -20 -20 -21 -21 -22 -23 -23 -24 -25 -26 -28 -29 -30 -31 -32 -32 -32 -33 -33 -33 -33 -33 -33 -33 -33 -33 -34 -34 -34 -34 -34 -34 -35 -35 -35 -35 -36 -36 -36
-19 -20 -20 -20 -20 -20 -21 -22 -23 -24 -24 -25 -26 -28 -29 -30 -31 -32 -32 -32 -32 -33 -33 -33 -33 -33 -33 -33 -34 -34 -34 -34 -34 -34 -34 -34 -35 -35 -34 -35 -35 -35 -35
-20 -20 -20 -20 -21 -21 -22 -23 -24 -24 -25 -26 -27 -29 -30 -31 -32 -32 -32 -32 -33 -33 -33 -33 -33 -33 -33 -33 -34 -34 -34 -34 -34 -34 -34 -34 -34 -34 -34 -34 -34 -34 -34
-20 -20 -21 -21 -22 -23 -24 -24 -24 -25 -26 -27 -29 -30 -31 -32 -32 -32 -32 -32 -33 -33 -33 -33 -33 -34 -33 -33 -34 -34 -34 -34 -34 -34 -34 -34 -34 -34 -34 -34 -33 -33 -32
-20 -21 -22 -22 -23 -24 -24 -25 -25 -26 -28 -29 -30 -30 -31 -32 -32 -32 -32 -32 -33 -33 -33 -33 -34 -34 -34 -33 -34 -34 -34 -34 -34 -34 -34 -34 -33 -33 -33 -33 -33 -33 -32
-21 -22 -23 -23 -24 -24 -25 -25 -26 -27 -29 -30 -30 -31 -32 -32 -32 -32 -32 -32 -33 -33 -33 -34 -34 -34 -34 -34 -34 -34 -34 -34 -34 -34 -34 -33 -33 -33 -33 -33 -33 -32 -32

GFSMW_500_temp_033.txt.gz
Temp
-14 -15 -15 -14 -14 -14 -15 -15 -15 -16 -16 -16 -17 -16 -16 -16 -17 -17 -17 -17 -17 -17 -17 -16 -16 -16 -16 -16 -16 -16 -17 -17 -17 -17 -17 -17 -17 -17 -17 -17 -17 -17 -17
-15 -15 -15 -15 -15 -15 -16 -16 -16 -16 -16 -16 -16 -16 -16 -17 -17 -17 -17 -17 -17 -17 -17 -17 -17 -17 -17 -17 -17 -17 -17 -18 -18 -18 -17 -17 -17 -18 -18 -19 -18 -18 -18
-15 -15 -15 -15 -16 -16 -15 -16 -16 -16 -16 -16 -16 -17 -17 -18 -18 -18 -18 -17 -17 -17 -17 -17 -18 -18 -17 -18 -18 -18 -18 -19 -19 -19 -19 -19 -18 -18 -19 -20 -20 -20 -20
-15 -15 -16 -16 -16 -16 -15 -16 -16 -16 -17 -17 -17 -18 -18 -18 -18 -18 -18 -19 -19 -18 -18 -18 -18 -18 -18 -18 -19 -19 -19 -20 -20 -20 -21 -21 -21 -20 -20 -20 -21 -21 -21
-15 -15 -16 -16 -16 -16 -16 -17 -17 -17 -17 -17 -17 -18 -18 -18 -18 -18 -18 -18 -18 -18 -18 -18 -18 -19 -19 -19 -20 -20 -21 -21 -22 -22 -22 -22 -22 -22 -22 -22 -22 -22 -22
-15 -16 -16 -16 -16 -17 -17 -17 -18 -18 -18 -18 -18 -18 -18 -18 -18 -18 -18 -17 -18 -18 -18 -18 -19 -19 -20 -21 -21 -22 -22 -23 -23 -23 -24 -24 -24 -25 -25 -25 -24 -24 -24
-16 -16 -17 -17 -16 -17 -18 -18 -17 -18 -18 -18 -18 -18 -17 -17 -17 -17 -18 -18 -18 -18 -19 -19 -20 -21 -22 -22 -23 -23 -24 -24 -25 -25 -26 -27 -28 -28 -28 -28 -28 -27 -27
-16 -16 -16 -17 -18 -18 -18 -18 -17 -17 -17 -17 -17 -17 -17 -18 -18 -18 -18 -18 -18 -18 -19 -20 -21 -21 -22 -23 -23 -23 -24 -26 -27 -28 -29 -30 -30 -30 -30 -30 -30 -30 -30
-16 -16 -17 -17 -17 -17 -16 -17 -17 -17 -17 -17 -17 -18 -18 -18 -18 -18 -18 -18 -19 -20 -20 -21 -22 -22 -23 -23 -24 -25 -27 -29 -30 -30 -31 -31 -31 -31 -31 -31 -31 -31 -31
-17 -17 -17 -17 -17 -17 -17 -17 -17 -18 -18 -18 -18 -18 -18 -18 -18 -18 -18 -19 -20 -21 -21 -22 -22 -23 -24 -25 -29 -31 -31 -31 -31 -32 -32 -32 -32 -32 -32 -32 -32 -32 -32
-17 -17 -17 -17 -17 -17 -18 -18 -18 -18 -18 -17 -18 -18 -18 -18 -18 -19 -19 -20 -20 -21 -21 -22 -23 -25 -28 -31 -31 -31 -32 -32 -32 -32 -32 -33 -33 -33 -33 -33 -32 -32 -32
-16 -16 -17 -17 -18 -18 -18 -18 -18 -18 -18 -18 -18 -18 -18 -19 -19 -19 -19 -20 -21 -22 -23 -24 -25 -28 -31 -31 -32 -32 -32 -33 -32 -32 -33 -33 -33 -33 -33 -32 -32 -32 -32
-16 -17 -18 -18 -18 -18 -18 -18 -18 -18 -18 -18 -19 -19 -19 -19 -19 -20 -20 -21 -22 -23 -24 -25 -28 -31 -32 -33 -32 -33 -33 -32 -33 -33 -33 -33 -33 -33 -33 -33 -32 -32 -32
-17 -17 -18 -18 -18 -18 -18 -18 -19 -19 -19 -19 -19 -19 -20 -20 -20 -21 -22 -22 -23 -24 -25 -28 -29 -31 -33 -32 -33 -33 -33 -33 -33 -33 -33 -33 -33 -33 -33 -33 -34 -34 -33
-18 -18 -18 -19 -19 -19 -19 -19 -19 -19 -19 -19 -19 -20 -20 -20 -21 -22 -23 -24 -25 -26 -28 -29 -30 -32 -33 -33 -33 -33 -33 -33 -33 -33 -33 -33 -33 -34 -34 -34 -35 -35 -35
-18 -18 -19 -19 -19 -19 -19 -19 -19 -19 -19 -19 -20 -20 -20 -21 -22 -23 -24 -25 -26 -28 -28 -29 -30 -32 -33 -33 -33 -33 -33 -33 -33 -33 -33 -34 -34 -34 -35 -35 -35 -36 -36
-18 -19 -19 -19 -19 -19 -19 -19 -19 -19 -19 -20 -20 -20 -21 -23 -23 -24 -25 -26 -28 -29 -30 -31 -32 -32 -33 -33 -33 -33 -33 -33 -33 -33 -34 -34 -34 -34 -35 -35 -35 -36 -36
-19 -19 -19 -19 -19 -19 -19 -19 -19 -19 -20 -20 -21 -22 -23 -23 -24 -25 -26 -28 -29 -30 -31 -32 -32 -32 -33 -33 -33 -33 -33 -33 -33 -34 -34 -34 -34 -34 -35 -35 -35 -36 -36
-19 -19 -19 -19 -19 -19 -20 -19 -20 -20 -21 -21 -22 -23 -23 -24 -25 -26 -28 -29 -30 -31 -31 -32 -32 -32 -33 -33 -33 -33 -33 -33 -34 -34 -34 -34 -34 -35 -35 -35 -35 -36 -36
-19 -20 -20 -20 -20 -20 -20 -20 -21 -21 -22 -22 -23 -24 -24 -25 -26 -27 -29 -30 -31 -32 -32 -32 -32 -33 -33 -33 -33 -33 -33 -33 -34 -34 -34 -34 -34 -35 -35 -35 -35 -36 -36
-20 -20 -20 -20 -20 -20 -20 -21 -21 -22 -22 -23 -24 -24 -25 -27 -27 -29 -30 -31 -32 -32 -32 -32 -32 -33 -33 -33 -33 -33 -33 -33 -34 -34 -34 -34 -34 -34 -35 -35 -35 -35 -36
-20 -20 -20 -20 -20 -21 -21 -21 -22 -22 -24 -24 -25 -26 -27 -28 -29 -30 -31 -32 -32 -32 -32 -32 -33 -33 -33 -33 -33 -33 -33 -33 -34 -34 -34 -34 -34 -34 -34 -34 -34 -34 -35
-20 -20 -20 -21 -21 -21 -22 -22 -23 -24 -24 -25 -26 -27 -28 -29 -30 -31 -31 -32 -32 -32 -32 -33 -33 -33 -33 -34 -33 -33 -33 -33 -33 -34 -34 -34 -34 -34 -34 -34 -34 -34 -33
-20 -21 -21 -21 -22 -22 -22 -23 -24 -25 -25 -26 -28 -29 -29 -30 -31 -31 -32 -32 -32 -32 -33 -33 -33 -33 -34 -34 -34 -34 -34 -34 -34 -34 -34 -34 -34 -34 -34 -33 -33 -33 -33
-21 -21 -22 -22 -22 -23 -24 -24 -25 -25 -27 -28 -29 -30 -30 -31 -31 -32 -33 -33 -33 -33 -33 -33 -33 -34 -34 -34 -34 -34 -34 -34 -34 -34 -34 -34 -34 -33 -33 -33 -33 -33 -33
-21 -22 -22 -23 -23 -24 -25 -25 -26 -27 -28 -29 -30 -31 -31 -32 -32 -32 -33 -33 -33 -33 -33 -33 -33 -34 -34 -34 -34 -34 -34 -34 -34 -34 -34 -34 -34 -34 -33 -33 -33 -33 -33

GFSMW_500_temp_036.txt.gz
Temp
-14 -15 -15 -15 -14 -14 -14 -14 -14 -14 -15 -16 -16 -17 -17 -16 -16 -17 -17 -17 -17 -17 -17 -17 -17 -17 -17 -17 -17 -17 -17 -17 -17 -17 -17 -17 -17 -17 -17 -18 -18 -18 -18
-15 -15 -15 -15 -15 -15 -15 -15 -14 -14 -15 -16 -17 -16 -17 -17 -17 -17 -17 -17 -17 -17 -17 -17 -17 -17 -17 -17 -17 -17 -18 -18 -18 -18 -18 -17 -18 -19 -19 -19 -19 -19 -19
-15 -15 -15 -15 -15 -15 -15 -15 -16 -16 -16 -16 -16 -16 -17 -17 -17 -17 -17 -17 -17 -18 -18 -18 -18 -18 -18 -18 -18 -19 -19 -19 -19 -19 -19 -19 -19 -19 -20 -20 -21 -21 -21
-15 -15 -15 -16 -15 -16 -15 -16 -16 -16 -16 -16 -17 -17 -17 -18 -18 -18 -18 -18 -19 -19 -18 -18 -18 -18 -18 -18 -18 -18 -19 -19 -19 -20 -20 -21 -21 -21 -21 -21 -22 -22 -22
-15 -15 -16 -16 -16 -16 -16 -16 -16 -17 -17 -17 -17 -18 -18 -18 -18 -18 -18 -18 -18 -18 -18 -18 -18 -18 -18 -18 -19 -19 -19 -20 -21 -21 -22 -22 -23 -23 -23 -23 -24 -24 -24
-15 -16 -16 -16 -16 -16 -16 -16 -17 -18 -18 -18 -18 -19 -18 -18 -18 -18 -18 -17 -17 -17 -18 -18 -18 -18 -19 -19 -19 -20 -21 -22 -22 -23 -23 -24 -24 -26 -27 -27 -28 -28 -27
-16 -16 -16 -16 -16 -16 -16 -17 -18 -18 -18 -18 -18 -18 -18 -17 -17 -17 -17 -17 -18 -18 -18 -18 -18 -19 -19 -20 -21 -21 -22 -23 -24 -24 -26 -28 -29 -29 -30 -30 -31 -31 -30
-16 -16 -16 -16 -16 -16 -16 -17 -18 -18 -18 -18 -17 -17 -17 -17 -17 -18 -18 -18 -18 -18 -19 -19 -20 -20 -21 -21 -22 -23 -24 -24 -25 -28 -29 -31 -31 -31 -32 -32 -32 -31 -32
-16 -17 -16 -16 -16 -17 -18 -18 -18 -18 -17 -17 -17 -17 -18 -18 -18 -18 -18 -18 -18 -19 -19 -20 -20 -21 -21 -22 -23 -24 -25 -27 -28 -31 -32 -32 -32 -32 -32 -32 -33 -32 -32
-15 -16 -16 -16 -17 -17 -17 -17 -17 -17 -18 -18 -18 -18 -18 -18 -18 -18 -18 -19 -19 -20 -20 -20 -21 -22 -23 -24 -25 -26 -28 -30 -31 -32 -32 -32 -33 -33 -33 -33 -33 -33 -32
-15 -16 -16 -16 -17 -17 -18 -18 -18 -18 -18 -18 -18 -18 -18 -18 -18 -19 -19 -19 -20 -20 -20 -21 -22 -23 -24 -25 -27 -29 -30 -32 -33 -33 -33 -33 -33 -33 -33 -33 -33 -33 -33
-15 -16 -16 -16 -16 -17 -18 -18 -19 -19 -18 -18 -18 -18 -18 -19 -19 -19 -19 -20 -20 -20 -21 -22 -23 -24 -25 -27 -28 -30 -32 -33 -33 -33 -33 -33 -33 -33 -33 -33 -33 -33 -33
-15 -15 -16 -16 -17 -18 -18 -18 -19 -19 -19 -19 -19 -19 -19 -19 -19 -20 -20 -20 -21 -22 -23 -24 -25 -26 -27 -28 -30 -31 -33 -34 -34 -33 -33 -33 -33 -33 -33 -33 -33 -33 -34
-15 -16 -16 -17 -17 -18 -18 -19 -19 -19 -19 -19 -19 -19 -19 -19 -20 -20 -21 -21 -22 -23 -24 -25 -26 -28 -29 -29 -31 -32 -33 -33 -33 -33 -33 -33 -33 -33 -33 -33 -34 -34 -35
-16 -17 -17 -17 -18 -18 -19 -19 -19 -19 -19 -19 -19 -20 -20 -20 -20 -21 -22 -22 -23 -24 -25 -26 -28 -29 -30 -31 -31 -32 -32 -33 -33 -33 -33 -33 -33 -33 -34 -34 -34 -34 -35
-17 -17 -17 -18 -18 -19 -19 -20 -20 -20 -19 -19 -20 -20 -20 -20 -21 -22 -23 -23 -24 -25 -26 -28 -30 -31 -31 -31 -32 -32 -33 -33 -33 -33 -33 -33 -33 -34 -34 -34 -34 -35 -35
-17 -18 -18 -18 -19 -19 -20 -20 -20 -20 -20 -20 -20 -20 -21 -21 -22 -23 -24 -25 -25 -27 -28 -30 -31 -31 -32 -32 -32 -32 -33 -33 -33 -33 -33 -33 -33 -34 -34 -34 -35 -35 -35
-18 -18 -18 -19 -19 -20 -20 -20 -20 -20 -20 -20 -21 -21 -22 -22 -23 -24 -25 -26 -27 -28 -30 -31 -32 -32 -32 -32 -32 -33 -33 -33 -33 -33 -33 -33 -34 -34 -34 -34 -35 -35 -35
-18 -19 -19 -19 -20 -20 -20 -21 -21 -21 -21 -21 -22 -22 -22 -23 -24 -25 -26 -27 -29 -30 -31 -32 -32 -32 -32 -32 -33 -33 -33 -33 -33 -33 -33 -33 -34 -34 -34 -34 -34 -35 -35
-19 -19 -19 -20 -20 -20 -21 -21 -21 -21 -22 -22 -22 -23 -24 -25 -25 -26 -27 -29 -30 -31 -31 -32 -32 -32 -32 -33 -33 -33 -33 -33 -33 -33 -33 -34 -34 -34 -34 -34 -34 -34 -35
-19 -19 -20 -20 -21 -21 -21 -21 -21 -22 -22 -23 -23 -24 -25 -25 -26 -28 -29 -30 -31 -31 -32 -32 -32 -32 -33 -33 -33 -33 -33 -33 -33 -33 -34 -34 -34 -34 -34 -34 -34 -34 -34
-19 -20 -20 -21 -21 -21 -21 -22 -22 -22 -23 -23 -24 -25 -25 -26 -28 -29 -30 -31 -31 -32 -33 -33 -33 -33 -33 -33 -33 -34 -33 -33 -33 -33 -33 -34 -34 -34 -34 -34 -34 -34 -34
-20 -20 -21 -21 -21 -22 -22 -23 -23 -24 -24 -24 -25 -25 -27 -28 -29 -30 -31 -32 -32 -33 -33 -33 -33 -33 -33 -33 -34 -34 -33 -33 -33 -33 -33 -33 -34 -34 -34 -34 -33 -33 -33
-21 -21 -21 -21 -22 -23 -23 -23 -24 -24 -25 -25 -26 -27 -28 -29 -30 -31 -32 -32 -33 -33 -33 -33 -33 -33 -33 -34 -34 -34 -34 -33 -33 -33 -33 -33 -34 -34 -34 -33 -33 -33 -33
-20 -21 -22 -22 -23 -23 -24 -24 -24 -25 -26 -26 -27 -28 -29 -30 -31 -32 -32 -33 -33 -34 -33 -33 -33 -33 -34 -34 -34 -34 -34 -34 -34 -34 -34 -33 -34 -34 -34 -34 -33 -33 -33
-21 -22 -22 -23 -23 -24 -24 -25 -25 -26 -26 -27 -28 -29 -29 -30 -32 -33 -33 -33 -34 -34 -34 -33 -34 -34 -34 -34 -34 -34 -34 -34 -34 -34 -34 -34 -34 -34 -34 -34 -33 -33 -33

GFSMW_500_temp_039.txt.gz
Temp
-15 -14 -14 -14 -14 -14 -14 -14 -14 -14 -15 -15 -15 -15 -16 -16 -16 -17 -17 -17 -17 -18 -18 -18 -17 -17 -17 -17 -17 -17 -18 -18 -18 -18 -18 -18 -18 -18 -18 -18 -18 -18 -18
-15 -15 -15 -15 -15 -15 -15 -15 -15 -15 -14 -14 -15 -16 -16 -17 -17 -16 -17 -18 -18 -17 -18 -18 -18 -18 -18 -18 -18 -18 -18 -18 -18 -19 -19 -19 -19 -19 -19 -20 -20 -20 -20
-15 -15 -15 -16 -16 -15 -15 -15 -15 -15 -15 -15 -16 -16 -17 -17 -17 -18 -18 -18 -18 -18 -18 -19 -19 -18 -18 -18 -18 -18 -18 -18 -18 -18 -19 -19 -19 -19 -20 -21 -21 -21 -22
-15 -15 -16 -16 -16 -16 -16 -16 -15 -15 -15 -15 -16 -16 -17 -17 -17 -18 -18 -18 -18 -18 -18 -18 -18 -18 -18 -18 -18 -18 -18 -18 -19 -19 -20 -20 -20 -20 -20 -20 -21 -22 -23
-15 -16 -16 -16 -16 -16 -16 -16 -16 -15 -16 -16 -17 -17 -18 -18 -19 -19 -19 -19 -18 -18 -18 -18 -18 -18 -18 -18 -18 -18 -19 -19 -20 -20 -20 -21 -21 -21 -22 -23 -24 -24 -25
-16 -16 -16 -16 -16 -16 -16 -16 -16 -16 -17 -17 -17 -18 -18 -19 -19 -19 -18 -18 -18 -18 -18 -18 -18 -18 -18 -18 -19 -19 -20 -20 -21 -21 -21 -21 -22 -24 -26 -27 -28 -28 -29
-15 -16 -16 -16 -16 -16 -16 -16 -16 -16 -17 -17 -18 -19 -19 -18 -18 -18 -18 -18 -18 -18 -18 -18 -18 -19 -19 -19 -20 -20 -21 -21 -22 -22 -22 -23 -26 -28 -29 -30 -30 -31 -31
-15 -15 -15 -15 -15 -15 -16 -16 -16 -16 -17 -17 -18 -18 -18 -18 -18 -18 -18 -18 -18 -18 -18 -19 -19 -19 -20 -20 -21 -21 -22 -22 -23 -23 -25 -28 -29 -30 -32 -32 -32 -32 -31
-14 -14 -15 -15 -15 -15 -16 -16 -16 -17 -17 -18 -18 -18 -18 -18 -18 -18 -18 -18 -18 -19 -19 -19 -19 -20 -20 -21 -21 -22 -23 -24 -25 -27 -28 -29 -32 -33 -33 -33 -33 -33 -32
-15 -15 -15 -15 -15 -16 -16 -16 -16 -17 -18 -18 -18 -19 -19 -19 -19 -19 -18 -19 -19 -19 -19 -19 -20 -20 -21 -22 -23 -23 -25 -26 -28 -28 -29 -32 -33 -33 -33 -33 -33 -33 -32
-15 -15 -15 -16 -16 -16 -16 -16 -17 -17 -18 -18 -19 -19 -19 -19 -19 -19 -19 -19 -19 -19 -19 -20 -21 -22 -23 -23 -24 -25 -27 -28 -29 -30 -31 -32 -33 -33 -33 -33 -33 -33 -33
-15 -15 -15 -16 -16 -16 -16 -17 -17 -18 -18 -19 -19 -20 -20 -19 -19 -19 -19 -19 -19 -20 -20 -21 -22 -23 -24 -25 -26 -28 -29 -30 -30 -31 -31 -32 -33 -33 -33 -33 -33 -33 -33
-15 -15 -16 -16 -16 -16 -17 -17 -18 -18 -19 -20 -20 -20 -20 -20 -20 -19 -20 -20 -20 -21 -22 -22 -23 -24 -25 -27 -29 -30 -31 -31 -31 -32 -32 -33 -33 -33 -33 -33 -33 -33 -34
-15 -16 -16 -16 -16 -17 -17 -18 -19 -19 -19 -19 -20 -20 -20 -20 -20 -20 -21 -21 -21 -22 -22 -23 -24 -26 -27 -29 -30 -31 -31 -31 -32 -32 -32 -33 -33 -33 -33 -33 -33 -34 -34
-16 -16 -16 -16 -17 -17 -18 -19 -19 -19 -19 -20 -20 -20 -20 -21 -21 -21 -21 -22 -22 -23 -23 -24 -26 -28 -29 -30 -31 -32 -32 -32 -32 -32 -33 -33 -33 -32 -33 -33 -34 -34 -34
-16 -16 -17 -17 -18 -18 -18 -19 -19 -19 -20 -20 -20 -21 -21 -21 -21 -21 -22 -22 -23 -24 -25 -26 -28 -29 -30 -31 -32 -32 -32 -32 -32 -33 -33 -33 -32 -33 -33 -34 -34 -34 -34
-17 -17 -17 -18 -18 -19 -19 -19 -20 -20 -21 -21 -21 -21 -21 -21 -22 -23 -23 -23 -24 -25 -26 -28 -29 -30 -31 -32 -32 -32 -32 -33 -33 -33 -33 -33 -33 -33 -33 -34 -34 -34 -34
-17 -17 -18 -18 -19 -19 -19 -20 -20 -21 -21 -21 -21 -22 -22 -23 -23 -23 -23 -24 -25 -26 -28 -29 -30 -31 -32 -32 -32 -33 -33 -33 -33 -33 -33 -33 -33 -33 -33 -34 -34 -34 -34
-17 -18 -18 -19 -19 -19 -20 -20 -21 -21 -21 -22 -22 -23 -23 -23 -23 -24 -25 -25 -27 -28 -29 -30 -31 -32 -33 -33 -33 -33 -33 -33 -33 -33 -33 -33 -33 -33 -34 -34 -34 -34 -34
-18 -18 -19 -19 -19 -20 -20 -21 -21 -22 -22 -22 -23 -23 -23 -24 -24 -25 -26 -27 -28 -29 -30 -31 -32 -33 -33 -33 -33 -33 -33 -33 -33 -33 -33 -33 -33 -33 -33 -34 -34 -34 -34
-19 -19 -19 -19 -20 -20 -20 -21 -22 -22 -22 -23 -23 -23 -24 -24 -25 -26 -27 -28 -29 -30 -31 -32 -32 -33 -33 -33 -33 -33 -33 -34 -33 -33 -33 -33 -33 -33 -33 -34 -33 -33 -33
-19 -19 -20 -20 -20 -20 -21 -21 -22 -22 -23 -23 -23 -24 -24 -25 -26 -27 -28 -29 -30 -31 -32 -33 -33 -33 -33 -33 -33 -34 -34 -34 -33 -33 -33 -33 -33 -33 -33 -34 -33 -33 -33
-19 -20 -20 -20 -20 -21 -21 -22 -22 -23 -23 -23 -24 -25 -25 -26 -27 -28 -29 -30 -30 -32 -33 -33 -33 -34 -33 -33 -34 -34 -34 -34 -34 -33 -33 -33 -33 -33 -33 -33 -34 -33 -33
-19 -20 -20 -21 -21 -22 -22 -22 -23 -23 -23 -24 -25 -25 -26 -27 -28 -29 -30 -30 -32 -32 -33 -33 -34 -34 -33 -34 -34 -34 -34 -34 -34 -34 -33 -33 -34 -33 -34 -34 -34 -34 -33
-20 -21 -21 -21 -22 -22 -23 -23 -23 -23 -24 -25 -25 -26 -27 -28 -29 -30 -30 -31 -32 -33 -33 -34 -34 -34 -34 -34 -34 -34 -35 -35 -34 -34 -34 -34 -34 -34 -33 -34 -34 -34 -33
-21 -21 -22 -22 -23 -23 -23 -23 -24 -24 -25 -26 -26 -27 -28 -29 -30 -31 -31 -32 -33 -33 -33 -34 -34 -34 -34 -34 -34 -34 -35 -35 -35 -35 -35 -34 -34 -34 -34 -34 -34 -34 -33

GFSMW_500_temp_045.txt.gz
Temp
-15 -15 -15 -15 -15 -14 -15 -15 -15 -15 -15 -15 -15 -15 -15 -15 -15 -16 -16 -17 -17 -17 -17 -18 -18 -18 -18 -18 -19 -19 -19 -19 -19 -19 -19 -18 -19 -18 -18 -18 -18 -18 -18
-15 -15 -15 -15 -15 -15 -15 -15 -14 -14 -14 -14 -14 -15 -15 -15 -15 -16 -16 -17 -17 -17 -18 -19 -19 -19 -20 -19 -19 -19 -19 -19 -19 -19 -18 -18 -18 -18 -19 -18 -18 -18 -18
-15 -15 -15 -15 -15 -16 -16 -15 -15 -15 -15 -15 -14 -15 -15 -15 -15 -16 -16 -16 -17 -18 -18 -19 -19 -19 -19 -19 -19 -19 -19 -18 -18 -18 -18 -18 -18 -18 -18 -19 -19 -19 -19
-15 -15 -15 -15 -15 -15 -15 -15 -15 -14 -14 -15 -15 -15 -15 -15 -16 -15 -15 -15 -17 -18 -18 -19 -19 -19 -19 -19 -19 -19 -19 -18 -18 -19 -19 -19 -19 -19 -19 -19 -19 -20 -20
-15 -15 -15 -15 -15 -15 -14 -14 -14 -14 -14 -15 -15 -15 -15 -16 -15 -16 -16 -16 -16 -17 -18 -19 -19 -19 -19 -19 -19 -19 -19 -19 -19 -19 -19 -19 -19 -19 -20 -19 -20 -20 -21
-15 -15 -15 -15 -14 -14 -14 -14 -14 -14 -14 -15 -15 -15 -15 -16 -16 -16 -16 -17 -17 -17 -18 -18 -19 -19 -19 -19 -19 -19 -19 -19 -19 -19 -19 -20 -20 -21 -22 -22 -22 -24 -25
-14 -14 -14 -14 -14 -14 -14 -14 -14 -14 -15 -15 -15 -15 -16 -16 -16 -17 -17 -17 -18 -18 -18 -19 -20 -20 -20 -19 -19 -19 -19 -19 -20 -20 -21 -22 -22 -23 -24 -26 -27 -28 -29
-14 -14 -14 -14 -14 -14 -14 -14 -14 -15 -15 -15 -15 -16 -16 -16 -17 -17 -18 -18 -18 -19 -19 -19 -19 -19 -19 -19 -19 -19 -20 -21 -21 -22 -22 -23 -24 -25 -27 -29 -30 -30 -30
-14 -14 -14 -14 -14 -14 -14 -15 -15 -15 -15 -16 -16 -16 -17 -17 -17 -18 -18 -18 -19 -19 -19 -19 -19 -19 -19 -20 -20 -21 -21 -22 -22 -23 -24 -25 -27 -28 -29 -30 -31 -31 -30
-14 -14 -14 -14 -14 -15 -15 -15 -15 -15 -16 -16 -16 -17 -17 -17 -18 -18 -18 -19 -19 -19 -19 -20 -20 -20 -20 -21 -21 -22 -22 -23 -23 -24 -26 -27 -29 -30 -31 -31 -31 -31 -31
-14 -14 -14 -15 -15 -15 -15 -15 -15 -16 -16 -16 -17 -17 -17 -18 -18 -19 -19 -19 -19 -20 -20 -20 -21 -21 -21 -22 -22 -23 -23 -24 -25 -26 -28 -29 -31 -31 -32 -32 -32 -32 -32
-15 -15 -15 -15 -15 -15 -15 -15 -16 -16 -17 -17 -17 -18 -18 -18 -19 -19 -19 -20 -20 -20 -20 -21 -21 -22 -23 -23 -23 -24 -24 -25 -27 -28 -29 -31 -32 -32 -32 -32 -32 -32 -32
-15 -15 -15 -15 -15 -16 -16 -16 -16 -17 -17 -17 -18 -18 -18 -19 -19 -20 -20 -20 -20 -21 -21 -22 -23 -23 -23 -24 -24 -24 -25 -27 -28 -29 -31 -32 -32 -32 -32 -32 -32 -32 -32
-15 -15 -15 -15 -16 -16 -16 -16 -17 -17 -18 -18 -18 -19 -19 -19 -20 -20 -20 -20 -21 -21 -22 -22 -23 -24 -24 -24 -24 -25 -26 -28 -29 -31 -32 -33 -33 -33 -33 -32 -32 -32 -32
-15 -15 -16 -16 -16 -16 -17 -17 -17 -18 -18 -19 -19 -19 -19 -20 -20 -20 -21 -21 -21 -21 -22 -23 -23 -24 -24 -25 -25 -26 -28 -29 -31 -32 -33 -33 -33 -33 -33 -32 -32 -32 -32
-15 -16 -16 -16 -17 -17 -17 -17 -18 -18 -19 -19 -19 -20 -20 -20 -20 -21 -21 -22 -22 -22 -22 -23 -24 -24 -24 -25 -26 -28 -29 -31 -32 -33 -33 -33 -33 -33 -32 -32 -32 -32 -32
-16 -16 -16 -17 -17 -18 -18 -18 -19 -19 -19 -19 -20 -20 -20 -21 -21 -21 -22 -22 -22 -22 -23 -24 -24 -25 -25 -26 -28 -29 -30 -32 -33 -33 -33 -33 -33 -33 -33 -32 -32 -32 -33
-16 -17 -17 -18 -18 -18 -18 -19 -19 -19 -20 -20 -20 -20 -21 -21 -21 -22 -22 -23 -23 -23 -24 -24 -25 -25 -25 -28 -29 -30 -32 -33 -33 -33 -33 -33 -33 -33 -33 -32 -33 -33 -33
-17 -17 -18 -18 -18 -18 -19 -19 -19 -20 -20 -20 -20 -21 -21 -21 -22 -22 -23 -23 -23 -24 -24 -25 -25 -26 -27 -29 -30 -32 -33 -33 -33 -33 -33 -33 -33 -33 -33 -33 -33 -33 -33
-17 -18 -18 -18 -18 -19 -19 -20 -20 -20 -20 -20 -21 -21 -22 -22 -22 -22 -23 -23 -24 -25 -25 -26 -27 -27 -29 -30 -32 -32 -33 -34 -34 -33 -33 -34 -34 -33 -33 -33 -33 -33 -33
-18 -18 -18 -19 -19 -19 -20 -20 -20 -20 -21 -21 -21 -21 -22 -22 -22 -23 -24 -24 -25 -26 -26 -27 -28 -29 -30 -31 -32 -33 -33 -34 -34 -34 -34 -34 -34 -34 -33 -33 -33 -33 -33
-18 -18 -19 -19 -19 -20 -20 -20 -20 -21 -21 -21 -21 -22 -22 -23 -23 -24 -24 -25 -27 -27 -28 -28 -29 -30 -31 -32 -33 -33 -34 -34 -34 -34 -34 -34 -34 -34 -34 -33 -33 -33 -33
-18 -19 -19 -20 -20 -20 -20 -21 -21 -22 -22 -22 -22 -22 -23 -24 -24 -25 -25 -27 -28 -28 -28 -29 -30 -31 -32 -33 -33 -34 -34 -34 -34 -34 -34 -34 -34 -34 -34 -34 -34 -34 -33
-19 -19 -19 -20 -20 -20 -21 -21 -22 -22 -22 -22 -22 -23 -23 -24 -25 -26 -28 -28 -29 -29 -30 -31 -31 -32 -33 -33 -33 -34 -34 -34 -34 -34 -34 -35 -35 -35 -35 -35 -34 -34 -34
-19 -20 -20 -20 -21 -21 -22 -22 -23 -23 -23 -23 -23 -24 -24 -25 -27 -28 -28 -29 -29 -30 -31 -31 -32 -33 -33 -33 -34 -34 -34 -34 -34 -34 -35 -35 -35 -35 -35 -35 -35 -34 -34
-20 -20 -20 -21 -21 -22 -22 -22 -23 -23 -23 -23 -24 -25 -26 -27 -28 -28 -29 -30 -31 -31 -32 -32 -32 -33 -34 -34 -34 -34 -35 -35 -34 -35 -35 -35 -35 -35 -35 -35 -35 -35 -35

GFSMW_500_temp_048.txt.gz
Temp
-15 -15 -15 -15 -15 -15 -15 -15 -15 -15 -14 -14 -14 -14 -14 -15 -15 -15 -15 -15 -15 -16 -16 -16 -17 -18 -18 -19 -19 -19 -19 -19 -19 -19 -19 -19 -19 -19 -19 -19 -18 -18 -18
-15 -15 -15 -15 -14 -14 -15 -15 -14 -14 -14 -14 -14 -14 -14 -14 -15 -15 -14 -15 -15 -15 -16 -16 -17 -18 -18 -19 -19 -19 -19 -19 -19 -19 -19 -19 -19 -19 -19 -19 -19 -19 -19
-14 -15 -15 -15 -15 -14 -14 -15 -15 -14 -15 -14 -14 -14 -14 -14 -14 -14 -15 -15 -15 -16 -16 -17 -17 -18 -18 -19 -19 -19 -19 -19 -19 -19 -19 -19 -18 -18 -18 -19 -19 -19 -19
-15 -15 -15 -15 -15 -15 -15 -15 -15 -15 -15 -14 -14 -14 -14 -14 -15 -15 -15 -15 -16 -16 -16 -17 -18 -18 -18 -18 -19 -19 -19 -19 -19 -19 -19 -19 -18 -18 -18 -19 -19 -20 -20
-15 -15 -15 -15 -15 -15 -15 -15 -15 -14 -14 -14 -14 -15 -14 -15 -15 -15 -15 -15 -15 -16 -17 -17 -18 -18 -18 -18 -18 -18 -18 -19 -19 -19 -19 -19 -19 -19 -20 -19 -20 -20 -22
-15 -15 -14 -15 -14 -15 -14 -14 -14 -14 -14 -14 -15 -15 -15 -15 -15 -16 -16 -16 -17 -17 -17 -17 -17 -18 -18 -19 -19 -19 -19 -19 -19 -20 -20 -20 -20 -21 -21 -21 -22 -23 -24
-14 -14 -14 -14 -14 -14 -14 -14 -14 -14 -15 -15 -15 -15 -15 -15 -16 -16 -16 -17 -17 -17 -18 -18 -18 -19 -19 -19 -20 -20 -20 -20 -20 -20 -21 -21 -22 -22 -22 -23 -24 -25 -27
-14 -14 -14 -14 -14 -14 -14 -14 -14 -14 -15 -15 -15 -15 -16 -16 -16 -16 -17 -17 -18 -18 -18 -19 -19 -19 -20 -20 -20 -20 -20 -20 -21 -22 -22 -23 -23 -24 -25 -26 -27 -28 -29
-14 -14 -14 -14 -14 -14 -14 -15 -15 -15 -15 -15 -15 -16 -16 -16 -17 -17 -17 -17 -18 -19 -19 -19 -19 -20 -20 -20 -20 -21 -21 -21 -22 -23 -23 -24 -24 -25 -27 -28 -30 -31 -31
-14 -14 -14 -14 -14 -14 -14 -15 -15 -15 -15 -15 -16 -16 -16 -17 -17 -17 -18 -19 -19 -19 -20 -20 -20 -20 -21 -21 -21 -21 -22 -23 -23 -23 -24 -24 -26 -27 -29 -30 -31 -32 -32
-14 -14 -14 -14 -15 -15 -15 -15 -15 -15 -15 -16 -16 -17 -17 -17 -18 -18 -19 -19 -19 -20 -20 -20 -20 -21 -21 -21 -21 -22 -22 -23 -24 -24 -24 -25 -27 -29 -30 -32 -32 -33 -32
-15 -15 -15 -15 -15 -15 -15 -15 -16 -16 -16 -16 -17 -17 -17 -18 -18 -19 -19 -20 -20 -20 -20 -20 -21 -21 -21 -22 -22 -22 -23 -24 -24 -25 -25 -27 -28 -30 -32 -33 -33 -33 -33
-15 -15 -15 -15 -15 -15 -16 -16 -16 -17 -17 -17 -18 -18 -18 -19 -19 -20 -20 -20 -20 -20 -21 -21 -21 -21 -22 -22 -23 -24 -24 -24 -25 -25 -27 -29 -29 -31 -33 -33 -33 -33 -33
-15 -15 -15 -15 -15 -16 -16 -16 -16 -17 -18 -18 -18 -19 -19 -19 -20 -20 -20 -20 -21 -21 -21 -21 -21 -22 -22 -23 -24 -24 -24 -25 -26 -27 -29 -30 -31 -33 -33 -33 -33 -33 -33
-15 -16 -16 -16 -16 -16 -16 -17 -17 -18 -18 -18 -19 -19 -19 -20 -21 -20 -20 -21 -21 -21 -21 -21 -22 -22 -23 -23 -24 -25 -25 -26 -27 -29 -30 -31 -32 -33 -33 -33 -33 -33 -32
-15 -15 -16 -16 -16 -16 -17 -17 -18 -18 -18 -19 -19 -19 -20 -20 -20 -21 -21 -21 -21 -21 -21 -22 -22 -23 -24 -24 -25 -26 -26 -27 -29 -30 -31 -32 -33 -33 -33 -33 -33 -33 -32
-16 -16 -16 -16 -16 -17 -17 -18 -18 -18 -19 -19 -20 -20 -20 -21 -21 -21 -21 -21 -21 -22 -22 -22 -23 -24 -24 -26 -26 -26 -27 -29 -30 -31 -32 -33 -33 -33 -33 -33 -33 -33 -32
-16 -16 -16 -17 -17 -17 -18 -18 -18 -19 -19 -20 -20 -20 -20 -21 -21 -21 -21 -21 -22 -22 -22 -24 -24 -24 -25 -26 -28 -28 -29 -30 -31 -32 -33 -33 -33 -33 -33 -33 -33 -33 -33
-16 -16 -16 -17 -18 -18 -18 -19 -19 -19 -19 -20 -20 -21 -21 -21 -21 -21 -21 -21 -22 -23 -24 -24 -24 -27 -27 -28 -29 -29 -29 -31 -32 -33 -33 -34 -34 -34 -34 -34 -33 -33 -33
-16 -17 -18 -18 -18 -18 -19 -19 -20 -20 -20 -20 -21 -21 -21 -22 -22 -22 -22 -22 -24 -24 -24 -24 -26 -27 -28 -28 -29 -30 -30 -31 -33 -33 -34 -34 -34 -34 -34 -34 -34 -33 -33
-17 -17 -18 -18 -19 -19 -19 -20 -20 -20 -20 -20 -21 -22 -22 -22 -22 -22 -22 -23 -23 -24 -25 -27 -28 -29 -29 -29 -30 -31 -31 -33 -33 -34 -34 -34 -34 -34 -34 -34 -34 -33 -33
-18 -18 -18 -18 -19 -19 -19 -20 -20 -20 -21 -21 -21 -22 -22 -22 -22 -23 -24 -24 -25 -27 -27 -28 -29 -30 -30 -31 -31 -32 -32 -33 -34 -34 -34 -34 -34 -34 -35 -34 -34 -34 -34
-18 -18 -19 -19 -19 -20 -20 -20 -21 -21 -22 -22 -22 -22 -22 -23 -24 -24 -25 -26 -27 -28 -29 -29 -30 -31 -31 -31 -32 -33 -33 -34 -34 -34 -34 -34 -34 -35 -35 -35 -35 -34 -34
-18 -19 -19 -20 -20 -20 -21 -21 -21 -22 -23 -23 -23 -23 -24 -24 -25 -26 -28 -28 -28 -29 -29 -30 -31 -31 -32 -32 -32 -33 -34 -34 -34 -34 -35 -35 -35 -35 -35 -35 -35 -35 -35
-19 -19 -20 -20 -20 -21 -21 -22 -22 -23 -24 -24 -24 -25 -25 -26 -27 -28 -29 -29 -29 -30 -30 -31 -32 -32 -32 -32 -33 -34 -34 -34 -34 -35 -35 -35 -35 -35 -35 -35 -35 -35 -35
-20 -20 -20 -20 -21 -22 -22 -22 -23 -24 -25 -25 -26 -26 -27 -28 -28 -29 -29 -29 -30 -31 -31 -32 -32 -32 -32 -33 -33 -34 -34 -34 -34 -34 -35 -35 -35 -35 -35 -35 -35 -35 -35

GFSMW_500_temp_051.txt.gz
Temp
-13 -13 -13 -13 -14 -15 -15 -15 -15 -15 -15 -15 -15 -15 -15 -14 -14 -14 -15 -15 -15 -15 -15 -15 -16 -16 -16 -16 -16 -16 -17 -18 -18 -18 -18 -19 -19 -19 -19 -19 -19 -19 -19
-14 -14 -14 -14 -14 -15 -15 -15 -15 -14 -15 -15 -14 -14 -14 -14 -14 -14 -15 -15 -15 -15 -15 -15 -16 -16 -16 -16 -17 -17 -17 -18 -18 -18 -18 -18 -19 -19 -19 -19 -19 -19 -19
-15 -15 -15 -14 -14 -15 -15 -15 -15 -15 -14 -14 -14 -14 -14 -14 -14 -14 -15 -15 -15 -15 -15 -16 -16 -16 -17 -17 -18 -18 -18 -18 -19 -19 -18 -18 -18 -18 -19 -19 -19 -20 -20
-14 -15 -15 -15 -14 -15 -15 -15 -15 -14 -14 -14 -14 -14 -14 -14 -15 -15 -15 -15 -15 -16 -16 -16 -17 -17 -18 -18 -18 -18 -19 -19 -19 -19 -19 -19 -19 -19 -18 -18 -19 -20 -21
-14 -14 -15 -15 -15 -15 -14 -14 -14 -14 -14 -14 -14 -14 -15 -15 -15 -15 -15 -15 -15 -16 -16 -17 -17 -18 -18 -18 -19 -19 -19 -19 -19 -19 -19 -20 -20 -20 -20 -19 -20 -21 -21
-14 -14 -14 -14 -15 -15 -14 -14 -14 -15 -14 -15 -15 -15 -15 -15 -15 -15 -15 -15 -16 -16 -16 -17 -17 -17 -17 -18 -18 -19 -19 -20 -20 -20 -20 -20 -20 -21 -21 -21 -21 -21 -22
-14 -14 -14 -14 -14 -14 -14 -14 -14 -15 -15 -15 -15 -15 -15 -15 -15 -16 -16 -16 -17 -17 -17 -17 -18 -18 -19 -19 -19 -19 -20 -20 -20 -20 -21 -21 -21 -21 -22 -22 -22 -22 -22
-14 -14 -14 -14 -14 -14 -14 -14 -14 -14 -15 -15 -15 -15 -15 -16 -16 -16 -16 -17 -17 -18 -18 -19 -19 -19 -20 -20 -20 -20 -20 -21 -21 -21 -21 -21 -22 -22 -22 -23 -23 -23 -24
-14 -14 -14 -14 -14 -14 -14 -14 -14 -14 -15 -15 -16 -16 -16 -17 -17 -17 -18 -18 -18 -19 -20 -19 -19 -20 -20 -20 -20 -20 -21 -21 -21 -21 -22 -22 -22 -23 -23 -24 -25 -27 -28
-15 -14 -14 -14 -14 -14 -15 -15 -15 -15 -15 -15 -16 -16 -17 -17 -17 -18 -18 -18 -19 -19 -20 -20 -20 -20 -21 -21 -21 -21 -21 -21 -21 -22 -22 -23 -24 -24 -24 -26 -28 -29 -31
-14 -14 -14 -14 -14 -15 -15 -15 -15 -15 -15 -16 -16 -17 -17 -18 -18 -18 -19 -19 -20 -20 -20 -20 -21 -21 -21 -21 -21 -21 -21 -22 -22 -23 -24 -24 -24 -25 -26 -28 -29 -31 -32
-15 -15 -14 -14 -14 -15 -15 -15 -15 -16 -16 -17 -17 -18 -18 -18 -18 -19 -19 -19 -19 -20 -20 -20 -20 -21 -21 -21 -21 -22 -22 -22 -23 -24 -24 -25 -25 -26 -28 -29 -31 -32 -33
-15 -15 -15 -15 -15 -15 -14 -14 -15 -15 -17 -18 -18 -18 -18 -18 -19 -19 -19 -20 -20 -20 -21 -21 -21 -21 -21 -21 -22 -22 -22 -24 -24 -24 -25 -26 -26 -28 -29 -31 -32 -33 -33
-15 -15 -15 -15 -15 -15 -16 -16 -17 -17 -18 -18 -18 -18 -19 -19 -19 -20 -20 -20 -20 -21 -21 -21 -21 -21 -21 -22 -22 -23 -23 -24 -24 -25 -26 -27 -28 -29 -31 -32 -33 -33 -33
-15 -15 -15 -16 -16 -16 -17 -17 -17 -18 -18 -18 -19 -19 -19 -19 -20 -20 -20 -21 -21 -21 -21 -21 -22 -22 -22 -23 -23 -24 -24 -24 -26 -27 -28 -29 -30 -31 -32 -33 -33 -33 -33
-16 -16 -16 -16 -16 -17 -17 -17 -18 -18 -18 -19 -19 -19 -19 -20 -20 -21 -21 -21 -21 -21 -22 -22 -22 -22 -23 -23 -24 -24 -25 -26 -27 -28 -29 -30 -31 -32 -33 -33 -33 -33 -33
-16 -16 -16 -16 -17 -17 -17 -17 -18 -18 -18 -19 -19 -20 -20 -20 -21 -21 -21 -21 -21 -21 -22 -22 -22 -23 -23 -25 -25 -26 -27 -27 -29 -29 -30 -31 -32 -33 -33 -34 -34 -34 -33
-16 -16 -16 -17 -17 -17 -17 -18 -18 -18 -18 -19 -19 -20 -20 -21 -21 -21 -21 -22 -22 -22 -22 -22 -23 -24 -25 -26 -27 -27 -29 -29 -30 -31 -31 -32 -33 -33 -34 -34 -34 -34 -34
-15 -16 -16 -16 -17 -18 -18 -18 -18 -19 -19 -19 -20 -21 -21 -21 -21 -22 -22 -22 -22 -22 -23 -24 -25 -26 -27 -28 -29 -29 -30 -31 -31 -31 -32 -33 -33 -34 -34 -34 -34 -34 -34
-16 -16 -17 -17 -18 -18 -19 -19 -19 -20 -20 -20 -20 -21 -21 -21 -22 -22 -23 -23 -23 -24 -25 -25 -27 -28 -28 -29 -29 -30 -31 -31 -31 -32 -32 -33 -34 -34 -34 -34 -35 -35 -34
-16 -17 -17 -18 -18 -19 -19 -19 -20 -20 -20 -21 -21 -21 -22 -23 -23 -23 -24 -24 -24 -25 -26 -28 -28 -29 -29 -30 -30 -31 -31 -32 -32 -33 -33 -34 -34 -34 -34 -35 -35 -35 -35
-17 -17 -18 -18 -19 -19 -19 -20 -20 -20 -21 -21 -22 -22 -23 -23 -24 -25 -25 -25 -26 -27 -28 -29 -29 -30 -30 -31 -31 -32 -32 -32 -33 -33 -34 -34 -34 -35 -35 -35 -35 -35 -35
-18 -18 -18 -18 -19 -19 -20 -20 -20 -21 -21 -22 -23 -23 -24 -24 -25 -26 -26 -27 -28 -29 -29 -30 -30 -30 -30 -31 -32 -32 -32 -33 -33 -34 -34 -34 -35 -35 -35 -35 -35 -35 -35
-18 -18 -19 -19 -20 -20 -20 -20 -21 -21 -22 -23 -23 -24 -24 -25 -27 -28 -28 -29 -30 -30 -30 -30 -30 -30 -31 -32 -32 -32 -33 -33 -33 -34 -34 -34 -35 -35 -35 -35 -35 -35 -35
-18 -19 -19 -20 -20 -20 -20 -21 -21 -22 -22 -23 -24 -24 -26 -27 -28 -29 -29 -30 -30 -30 -30 -30 -30 -31 -32 -33 -33 -33 -33 -33 -34 -35 -35 -34 -35 -35 -35 -35 -35 -35 -35
-19 -20 -20 -20 -20 -21 -21 -22 -22 -22 -23 -23 -25 -26 -27 -29 -29 -30 -30 -30 -30 -31 -31 -31 -31 -32 -33 -33 -33 -33 -33 -33 -34 -35 -35 -35 -35 -35 -35 -35 -35 -35 -35